KLM681 EHAM-CYVR

Flight info

Callsign KLM681
Flight time 9h 9m
Altitude 34000
Route ANDIK DCT SUTEB DCT GIBSU DCT FORTY DCT MOCHA DCT PEMOS/M082F340 DCT 65N012W/M083F360 68N022W 70N035W 72N051W 71N067W/N0483F380 DCT 7082N DCT 67N095W 64N104W DCT YSM J528 YQU DCT HEIRE Q800 ELIDI WHSLR8
Aircraft B77W/H-SDE1E2E3FGHIJ2J3J4J5M1RWXY/LB1D1

Departure

Time 2026-05-05 13:27
Airport Amsterdam Airport Schiphol (EHAM)

Arrival

Time 2026-05-05 22:36
Airport Vancouver International Airport (CYVR)
Time Latitude Longitude Altitude Speed Heading
2026-05-05 12:33 52.31300 4.76313 4 ft 0 kts 253°
2026-05-05 13:10 52.31303 4.76332 6 ft 4 kts 254°
2026-05-05 13:10 52.31310 4.76375 4 ft 4 kts 254°
2026-05-05 13:11 52.31318 4.76417 4 ft 4 kts 253°
2026-05-05 13:11 52.31326 4.76458 4 ft 4 kts 252°
2026-05-05 13:11 52.31335 4.76500 5 ft 4 kts 245°
2026-05-05 13:11 52.31349 4.76536 7 ft 4 kts 219°
2026-05-05 13:12 52.31345 4.76531 4 ft 4 kts 224°
2026-05-05 13:12 52.31334 4.76493 4 ft 4 kts 256°
2026-05-05 13:12 52.31338 4.76453 4 ft 4 kts 294°
2026-05-05 13:12 52.31358 4.76427 4 ft 4 kts 333°
2026-05-05 13:13 52.31369 4.76421 4 ft 0 kts 342°
2026-05-05 13:16 52.31370 4.76421 4 ft 1 kts 342°
2026-05-05 13:16 52.31405 4.76402 4 ft 7 kts 342°
2026-05-05 13:17 52.31435 4.76387 4 ft 7 kts 342°
2026-05-05 13:17 52.31478 4.76360 4 ft 7 kts 332°
2026-05-05 13:17 52.31512 4.76310 4 ft 7 kts 308°
2026-05-05 13:17 52.31531 4.76233 4 ft 9 kts 281°
2026-05-05 13:18 52.31533 4.76129 4 ft 9 kts 268°
2026-05-05 13:18 52.31530 4.76026 4 ft 9 kts 267°
2026-05-05 13:18 52.31527 4.75922 4 ft 9 kts 267°
2026-05-05 13:18 52.31524 4.75818 4 ft 9 kts 267°
2026-05-05 13:19 52.31521 4.75711 4 ft 12 kts 266°
2026-05-05 13:19 52.31514 4.75534 4 ft 16 kts 266°
2026-05-05 13:19 52.31508 4.75348 4 ft 16 kts 266°
2026-05-05 13:19 52.31501 4.75161 3 ft 16 kts 267°
2026-05-05 13:20 52.31495 4.74975 4 ft 16 kts 267°
2026-05-05 13:20 52.31489 4.74788 4 ft 16 kts 267°
2026-05-05 13:20 52.31483 4.74610 4 ft 15 kts 266°
2026-05-05 13:20 52.31477 4.74437 4 ft 15 kts 267°
2026-05-05 13:21 52.31468 4.74271 4 ft 14 kts 257°
2026-05-05 13:21 52.31406 4.74156 4 ft 14 kts 200°
2026-05-05 13:21 52.31308 4.74132 4 ft 14 kts 185°
2026-05-05 13:21 52.31210 4.74116 4 ft 14 kts 185°
2026-05-05 13:22 52.31112 4.74101 4 ft 14 kts 185°
2026-05-05 13:22 52.31014 4.74086 4 ft 14 kts 185°
2026-05-05 13:22 52.30916 4.74092 4 ft 14 kts 179°
2026-05-05 13:22 52.30817 4.74087 4 ft 14 kts 183°
2026-05-05 13:23 52.30720 4.74079 4 ft 14 kts 183°
2026-05-05 13:23 52.30635 4.74072 4 ft 8 kts 183°
2026-05-05 13:23 52.30583 4.74067 4 ft 7 kts 183°
2026-05-05 13:23 52.30531 4.74062 4 ft 8 kts 183°
2026-05-05 13:24 52.30470 4.74056 4 ft 9 kts 184°
2026-05-05 13:24 52.30408 4.74049 4 ft 9 kts 185°
2026-05-05 13:24 52.30347 4.74028 4 ft 9 kts 198°
2026-05-05 13:24 52.30282 4.73982 4 ft 11 kts 209°
2026-05-05 13:25 52.30226 4.73919 3 ft 7 kts 220°
2026-05-05 13:25 52.30199 4.73843 3 ft 12 kts 256°
2026-05-05 13:25 52.30231 4.73758 2 ft 10 kts 335°
2026-05-05 13:25 52.30264 4.73750 1 ft 0 kts
2026-05-05 13:26 52.30271 4.73751 1 ft 2 kts
2026-05-05 13:26 52.30285 4.73752 1 ft 2 kts
2026-05-05 13:26 52.30335 4.73755 0 ft 19 kts
2026-05-05 13:26 52.30624 4.73780 2 ft 74 kts
2026-05-05 13:27 52.31371 4.73857 2 ft 138 kts
2026-05-05 13:27 52.32488 4.73967 19 ft 184 kts
2026-05-05 13:27 52.33808 4.74028 478 ft 191 kts
2026-05-05 13:27 52.35095 4.74372 1331 ft 182 kts 19°
2026-05-05 13:28 52.36231 4.75195 2065 ft 182 kts 28°
2026-05-05 13:28 52.37447 4.76192 2274 ft 208 kts 28°
2026-05-05 13:28 52.38602 4.77758 2550 ft 226 kts 50°
2026-05-05 13:28 52.39660 4.79805 2950 ft 241 kts 47°
2026-05-05 13:29 52.40819 4.81823 3734 ft 246 kts 46°
2026-05-05 13:29 52.42028 4.83869 4375 ft 255 kts 45°
2026-05-05 13:29 52.43383 4.85730 4999 ft 257 kts 26°
2026-05-05 13:29 52.45124 4.86263 5577 ft 262 kts 357°
2026-05-05 13:30 52.46975 4.86046 6094 ft 272 kts 356°
2026-05-05 13:30 52.48879 4.85866 6772 ft 275 kts 356°
2026-05-05 13:30 52.50796 4.85688 7518 ft 277 kts 356°
2026-05-05 13:30 52.52723 4.85593 8176 ft 278 kts
2026-05-05 13:31 52.54543 4.86709 8668 ft 286 kts 38°
2026-05-05 13:31 52.55880 4.89132 9277 ft 288 kts 52°
2026-05-05 13:31 52.57130 4.91776 9864 ft 295 kts 51°
2026-05-05 13:31 52.58396 4.94420 10388 ft 304 kts 51°
2026-05-05 13:32 52.59757 4.97273 10559 ft 328 kts 51°
2026-05-05 13:32 52.61221 5.00345 10738 ft 352 kts 51°
2026-05-05 13:32 52.62777 5.03617 10993 ft 372 kts 51°
2026-05-05 13:32 52.64401 5.07035 11557 ft 383 kts 51°
2026-05-05 13:33 52.66055 5.10523 12403 ft 389 kts 51°
2026-05-05 13:33 52.67729 5.14052 13062 ft 401 kts 50°
2026-05-05 13:33 52.69455 5.17691 14003 ft 402 kts 51°
2026-05-05 13:33 52.71186 5.21347 14791 ft 408 kts 51°
2026-05-05 13:34 52.73123 5.24762 15317 ft 410 kts 34°
2026-05-05 13:34 52.75668 5.26880 16006 ft 413 kts 15°
2026-05-05 13:34 52.78497 5.27603 16724 ft 410 kts
2026-05-05 13:34 52.81385 5.27747 17367 ft 418 kts 359°
2026-05-05 13:35 52.84313 5.27882 18060 ft 425 kts 359°
2026-05-05 13:35 52.87284 5.28022 18770 ft 429 kts 360°
2026-05-05 13:35 52.90245 5.28171 19501 ft 431 kts 359°
2026-05-05 13:35 52.93254 5.28335 20245 ft 434 kts 359°
2026-05-05 13:36 52.96291 5.28509 20899 ft 438 kts 359°
2026-05-05 13:36 52.99362 5.28692 21505 ft 444 kts 359°
2026-05-05 13:36 53.02470 5.28883 22118 ft 449 kts 359°
2026-05-05 13:36 53.05611 5.29079 22750 ft 453 kts 359°
2026-05-05 13:37 53.08742 5.29276 23367 ft 457 kts 359°
2026-05-05 13:37 53.11935 5.29478 23902 ft 462 kts 359°
2026-05-05 13:37 53.15168 5.29684 24423 ft 466 kts 359°
2026-05-05 13:37 53.18403 5.29889 24930 ft 469 kts 359°
2026-05-05 13:38 53.21670 5.30096 25431 ft 472 kts 359°
2026-05-05 13:38 53.24974 5.30305 25916 ft 476 kts 358°
2026-05-05 13:38 53.28296 5.30516 26387 ft 480 kts 358°
2026-05-05 13:38 53.31649 5.30729 26848 ft 483 kts 358°
2026-05-05 13:39 53.35025 5.30944 27314 ft 487 kts 358°
2026-05-05 13:39 53.38430 5.31161 27748 ft 490 kts 358°
2026-05-05 13:39 53.41823 5.31378 28173 ft 493 kts 358°
2026-05-05 13:39 53.45266 5.31599 28585 ft 496 kts 358°
2026-05-05 13:40 53.48731 5.31821 28970 ft 499 kts 358°
2026-05-05 13:40 53.52223 5.32045 29353 ft 502 kts 358°
2026-05-05 13:40 53.55718 5.32271 29834 ft 502 kts 358°
2026-05-05 13:40 53.59204 5.32499 30341 ft 500 kts 358°
2026-05-05 13:41 53.62675 5.32725 30832 ft 499 kts 358°
2026-05-05 13:41 53.66089 5.32948 31337 ft 496 kts 358°
2026-05-05 13:41 53.69537 5.33173 31833 ft 494 kts 358°
2026-05-05 13:41 53.72965 5.33396 32233 ft 493 kts 358°
2026-05-05 13:42 53.76397 5.33618 32604 ft 493 kts 359°
2026-05-05 13:42 53.79835 5.33840 32991 ft 493 kts 359°
2026-05-05 13:42 53.83264 5.34063 33397 ft 492 kts 359°
2026-05-05 13:42 53.86682 5.34286 33803 ft 491 kts 359°
2026-05-05 13:43 53.90108 5.34509 33968 ft 493 kts 360°
2026-05-05 13:43 53.93530 5.34733 33971 ft 489 kts 360°
2026-05-05 13:43 54.00271 5.35179 33979 ft 482 kts 360°
2026-05-05 13:44 54.06985 5.35620 33994 ft 483 kts 360°
2026-05-05 13:44 54.13676 5.36061 34003 ft 484 kts
2026-05-05 13:45 54.20419 5.36507 33992 ft 484 kts
2026-05-05 13:45 54.27114 5.36953 33993 ft 483 kts
2026-05-05 13:46 54.33836 5.37402 33994 ft 482 kts
2026-05-05 13:46 54.40547 5.37852 34004 ft 482 kts
2026-05-05 13:47 54.47251 5.38302 33991 ft 482 kts
2026-05-05 13:47 54.53917 5.38751 33998 ft 481 kts
2026-05-05 13:48 54.60615 5.39204 33992 ft 481 kts
2026-05-05 13:48 54.67324 5.39661 34005 ft 482 kts 359°
2026-05-05 13:49 54.73994 5.40114 33995 ft 482 kts 359°
2026-05-05 13:49 54.80711 5.40573 33999 ft 483 kts 359°
2026-05-05 13:50 54.87441 5.41034 33999 ft 486 kts 359°
2026-05-05 13:50 54.94284 5.41500 34005 ft 495 kts 358°
2026-05-05 13:51 54.97716 5.41200 33993 ft 492 kts 347°
2026-05-05 13:51 55.01017 5.39750 34005 ft 487 kts 336°
2026-05-05 13:51 55.06908 5.34244 34008 ft 478 kts 322°
2026-05-05 13:52 55.12379 5.27713 33999 ft 479 kts 322°
2026-05-05 13:52 55.17917 5.21151 33995 ft 477 kts 322°
2026-05-05 13:53 55.23380 5.14745 33988 ft 468 kts 322°
2026-05-05 13:53 55.28784 5.08411 33999 ft 470 kts 322°
2026-05-05 13:54 55.34235 5.02003 33996 ft 471 kts 322°
2026-05-05 13:54 55.39687 4.95571 33995 ft 472 kts 322°
2026-05-05 13:55 55.45141 4.89116 34008 ft 472 kts 321°
2026-05-05 13:55 55.50561 4.82678 33994 ft 472 kts 321°
2026-05-05 13:56 55.55995 4.76202 33991 ft 470 kts 321°
2026-05-05 13:56 55.61414 4.69722 33991 ft 469 kts 321°
2026-05-05 13:57 55.66816 4.63239 33992 ft 468 kts 321°
2026-05-05 13:57 55.72214 4.56739 34008 ft 468 kts 321°
2026-05-05 13:58 55.77576 4.50260 33996 ft 468 kts 321°
2026-05-05 13:58 55.82961 4.43732 33991 ft 468 kts 321°
2026-05-05 13:59 55.91037 4.33899 33985 ft 468 kts 321°
2026-05-05 14:00 55.98190 4.25149 33993 ft 468 kts 321°
2026-05-05 14:00 56.04429 4.17483 33998 ft 468 kts 321°
2026-05-05 14:01 56.09797 4.10862 33996 ft 469 kts 321°
2026-05-05 14:01 56.15173 4.04210 33989 ft 469 kts 321°
2026-05-05 14:02 56.20503 3.97592 33994 ft 469 kts 321°
2026-05-05 14:02 56.25868 3.90907 34029 ft 469 kts 320°
2026-05-05 14:03 56.31235 3.84197 33988 ft 468 kts 320°
2026-05-05 14:03 56.36539 3.77542 33992 ft 466 kts 320°
2026-05-05 14:04 56.40986 3.71945 33996 ft 464 kts 320°
2026-05-05 14:04 56.46243 3.65306 33999 ft 463 kts 320°
2026-05-05 14:05 56.51525 3.58611 34004 ft 463 kts 320°
2026-05-05 14:05 56.56802 3.51901 34014 ft 463 kts 320°
2026-05-05 14:06 56.62084 3.45160 34020 ft 464 kts 320°
2026-05-05 14:06 56.67359 3.38406 34017 ft 464 kts 320°
2026-05-05 14:07 56.72639 3.31623 34024 ft 465 kts 320°
2026-05-05 14:07 56.77586 3.24137 34019 ft 459 kts 310°
2026-05-05 14:08 56.81741 3.15454 34049 ft 456 kts 306°
2026-05-05 14:08 56.85828 3.06575 34027 ft 455 kts 306°
2026-05-05 14:09 56.89910 2.97737 34023 ft 454 kts 306°
2026-05-05 14:09 56.93993 2.88906 34031 ft 452 kts 306°
2026-05-05 14:10 56.98049 2.80112 34030 ft 452 kts 306°
2026-05-05 14:10 57.02073 2.71357 34030 ft 451 kts 306°
2026-05-05 14:11 57.06124 2.62510 34037 ft 452 kts 306°
2026-05-05 14:11 57.10169 2.53642 34057 ft 452 kts 306°
2026-05-05 14:12 57.14173 2.44832 34046 ft 451 kts 306°
2026-05-05 14:12 57.18191 2.35958 34045 ft 449 kts 306°
2026-05-05 14:13 57.22193 2.27086 34045 ft 448 kts 305°
2026-05-05 14:13 57.26151 2.18278 34052 ft 448 kts 305°
2026-05-05 14:14 57.30125 2.09401 34061 ft 448 kts 305°
2026-05-05 14:14 57.34100 2.00488 34060 ft 448 kts 305°
2026-05-05 14:15 57.38076 1.91541 34082 ft 449 kts 305°
2026-05-05 14:15 57.42008 1.82662 34065 ft 447 kts 305°
2026-05-05 14:16 57.45950 1.73725 34056 ft 446 kts 304°
2026-05-05 14:16 57.49872 1.64798 34068 ft 445 kts 304°
2026-05-05 14:17 57.53781 1.55868 34066 ft 445 kts 304°
2026-05-05 14:17 57.57665 1.46960 34067 ft 445 kts 304°
2026-05-05 14:18 57.61567 1.37979 34073 ft 446 kts 304°
2026-05-05 14:18 57.65482 1.28935 34120 ft 446 kts 304°
2026-05-05 14:19 57.69352 1.19960 34078 ft 444 kts 304°
2026-05-05 14:19 57.73225 1.10947 34070 ft 442 kts 304°
2026-05-05 14:20 57.77063 1.01978 34077 ft 440 kts 304°
2026-05-05 14:20 57.80861 0.93068 34079 ft 439 kts 304°
2026-05-05 14:21 57.84677 0.84082 34079 ft 439 kts 304°
2026-05-05 14:21 57.88488 0.75075 34080 ft 440 kts 304°
2026-05-05 14:22 57.92297 0.66120 34087 ft 443 kts 307°
2026-05-05 14:22 57.96805 0.58058 34083 ft 451 kts 315°
2026-05-05 14:23 58.01991 0.51221 34089 ft 457 kts 322°
2026-05-05 14:23 58.07425 0.44943 34092 ft 459 kts 323°
2026-05-05 14:24 58.12884 0.38639 34086 ft 459 kts 322°
2026-05-05 14:24 58.18293 0.32309 34085 ft 459 kts 322°
2026-05-05 14:25 58.23714 0.25906 34170 ft 460 kts 322°
2026-05-05 14:25 58.26427 0.22688 34419 ft 459 kts 322°
2026-05-05 14:25 58.29138 0.19468 34710 ft 457 kts 322°
2026-05-05 14:26 58.31836 0.16258 34967 ft 457 kts 322°
2026-05-05 14:26 58.34526 0.13051 35167 ft 457 kts 322°
2026-05-05 14:26 58.37194 0.09864 35378 ft 457 kts 322°
2026-05-05 14:26 58.39894 0.06633 35552 ft 458 kts 322°
2026-05-05 14:27 58.42599 0.03390 35753 ft 458 kts 322°
2026-05-05 14:27 58.45306 0.00141 35944 ft 459 kts 323°
2026-05-05 14:27 58.48024 -0.03129 36054 ft 460 kts 323°
2026-05-05 14:27 58.50683 -0.06332 36082 ft 457 kts 323°
2026-05-05 14:28 58.56031 -0.12787 36086 ft 451 kts 322°
2026-05-05 14:28 58.61336 -0.19221 36091 ft 450 kts 322°
2026-05-05 14:29 58.66635 -0.25673 36091 ft 450 kts 322°
2026-05-05 14:29 58.71934 -0.32149 36092 ft 451 kts 322°
2026-05-05 14:30 58.77208 -0.38615 36092 ft 452 kts 322°
2026-05-05 14:30 58.82519 -0.45152 36091 ft 453 kts 322°
2026-05-05 14:31 58.87846 -0.51731 36093 ft 454 kts 322°
2026-05-05 14:31 58.93128 -0.58278 36093 ft 454 kts 322°
2026-05-05 14:32 58.98459 -0.64911 36090 ft 454 kts 322°
2026-05-05 14:32 59.03784 -0.71561 36133 ft 454 kts 322°
2026-05-05 14:33 59.09098 -0.78222 36100 ft 454 kts 322°
2026-05-05 14:33 59.14365 -0.84848 36084 ft 452 kts 322°
2026-05-05 14:34 59.19648 -0.91520 36090 ft 450 kts 322°
2026-05-05 14:34 59.24873 -0.98143 36091 ft 449 kts 322°
2026-05-05 14:35 59.30105 -1.04803 36094 ft 448 kts 321°
2026-05-05 14:35 59.35334 -1.11483 36096 ft 449 kts 321°
2026-05-05 14:36 59.40568 -1.18192 36096 ft 449 kts 321°
2026-05-05 14:36 59.45799 -1.24926 36096 ft 449 kts 321°
2026-05-05 14:37 59.51039 -1.31692 36094 ft 450 kts 321°
2026-05-05 14:37 59.56135 -1.38669 36097 ft 446 kts 315°
2026-05-05 14:38 59.60819 -1.46684 36137 ft 446 kts 314°
2026-05-05 14:38 59.65498 -1.54809 36108 ft 447 kts 314°
2026-05-05 14:39 59.70185 -1.62931 36104 ft 448 kts 314°
2026-05-05 14:39 59.74855 -1.71021 36100 ft 448 kts 314°
2026-05-05 14:40 59.79551 -1.79177 36102 ft 448 kts 314°
2026-05-05 14:40 59.84245 -1.87359 36103 ft 448 kts 314°
2026-05-05 14:41 59.88935 -1.95571 36133 ft 448 kts 314°
2026-05-05 14:41 59.93617 -2.03801 36108 ft 448 kts 314°
2026-05-05 14:42 59.98264 -2.11999 36113 ft 448 kts 314°
2026-05-05 14:42 60.02927 -2.20259 36093 ft 447 kts 314°
2026-05-05 14:43 60.07591 -2.28555 36097 ft 447 kts 314°
2026-05-05 14:43 60.12208 -2.36798 36095 ft 447 kts 314°
2026-05-05 14:44 60.16852 -2.45124 36126 ft 448 kts 314°
2026-05-05 14:44 60.21501 -2.53490 36113 ft 448 kts 314°
2026-05-05 14:45 60.26148 -2.61886 36105 ft 448 kts 314°
2026-05-05 14:45 60.30764 -2.70259 36100 ft 448 kts 314°
2026-05-05 14:46 60.35395 -2.78693 36107 ft 448 kts 314°
2026-05-05 14:46 60.40028 -2.87165 36105 ft 448 kts 314°
2026-05-05 14:47 60.44656 -2.95662 36140 ft 449 kts 314°
2026-05-05 14:47 60.49269 -3.04166 36118 ft 450 kts 314°
2026-05-05 14:48 60.53909 -3.12752 36107 ft 451 kts 314°
2026-05-05 14:48 60.58549 -3.21374 36106 ft 451 kts 314°
2026-05-05 14:49 60.63188 -3.30030 36110 ft 452 kts 314°
2026-05-05 14:49 60.67797 -3.38663 36109 ft 452 kts 314°
2026-05-05 14:50 60.72434 -3.47388 36122 ft 453 kts 314°
2026-05-05 14:50 60.77064 -3.56134 36123 ft 453 kts 313°
2026-05-05 14:51 60.81670 -3.64869 36114 ft 454 kts 313°
2026-05-05 14:51 60.86300 -3.73687 36111 ft 454 kts 313°
2026-05-05 14:52 60.90924 -3.82531 36110 ft 454 kts 313°
2026-05-05 14:52 60.94780 -3.89932 36114 ft 454 kts 313°
2026-05-05 14:53 60.99402 -3.98829 36148 ft 455 kts 314°
2026-05-05 14:53 61.04273 -4.07260 36116 ft 458 kts 317°
2026-05-05 14:54 61.09262 -4.15478 36100 ft 459 kts 317°
2026-05-05 14:54 61.14252 -4.23730 36118 ft 459 kts 317°
2026-05-05 14:55 61.19229 -4.32048 36117 ft 459 kts 317°
2026-05-05 14:55 61.24161 -4.40350 36101 ft 459 kts 317°
2026-05-05 14:56 61.29122 -4.48744 36126 ft 460 kts 317°
2026-05-05 14:56 61.34086 -4.57178 36118 ft 460 kts 317°
2026-05-05 14:57 61.39043 -4.65634 36111 ft 461 kts 317°
2026-05-05 14:57 61.44007 -4.74137 36112 ft 461 kts 317°
2026-05-05 14:58 61.48937 -4.82616 36115 ft 461 kts 317°
2026-05-05 14:58 61.53890 -4.91172 36115 ft 461 kts 317°
2026-05-05 14:59 61.58834 -4.99750 36106 ft 460 kts 317°
2026-05-05 14:59 61.63761 -5.08333 36106 ft 460 kts 317°
2026-05-05 15:00 61.67855 -5.15494 36115 ft 459 kts 317°
2026-05-05 15:00 61.73557 -5.25511 36118 ft 458 kts 317°
2026-05-05 15:01 61.78455 -5.34155 36116 ft 458 kts 317°
2026-05-05 15:01 61.83347 -5.42827 36137 ft 459 kts 317°
2026-05-05 15:02 61.88240 -5.51538 36124 ft 460 kts 317°
2026-05-05 15:02 61.93145 -5.60306 36119 ft 460 kts 317°
2026-05-05 15:03 61.98042 -5.69099 36113 ft 460 kts 317°
2026-05-05 15:03 62.02901 -5.77861 36110 ft 460 kts 317°
2026-05-05 15:04 62.07783 -5.86703 36118 ft 460 kts 316°
2026-05-05 15:04 62.12669 -5.95593 36131 ft 461 kts 317°
2026-05-05 15:05 62.19960 -6.08930 36118 ft 461 kts 316°
2026-05-05 15:06 62.24836 -6.17898 36122 ft 461 kts 316°
2026-05-05 15:06 62.29705 -6.26894 36112 ft 461 kts 316°
2026-05-05 15:07 62.34575 -6.35931 36117 ft 462 kts 316°
2026-05-05 15:07 62.39406 -6.44935 36134 ft 462 kts 316°
2026-05-05 15:08 62.44281 -6.54063 36124 ft 463 kts 316°
2026-05-05 15:08 62.49154 -6.63229 36102 ft 464 kts 316°
2026-05-05 15:09 62.54020 -6.72420 36115 ft 464 kts 316°
2026-05-05 15:09 62.58882 -6.81646 36124 ft 464 kts 316°
2026-05-05 15:10 62.63705 -6.90840 36120 ft 464 kts 316°
2026-05-05 15:10 62.68561 -7.00139 36125 ft 464 kts 316°
2026-05-05 15:11 62.73414 -7.09474 36125 ft 465 kts 316°
2026-05-05 15:11 62.78231 -7.18784 36122 ft 465 kts 316°
2026-05-05 15:12 62.83079 -7.28194 36121 ft 465 kts 316°
2026-05-05 15:12 62.87922 -7.37639 36120 ft 466 kts 316°
2026-05-05 15:13 62.92756 -7.47109 36119 ft 466 kts 316°
2026-05-05 15:13 62.97592 -7.56629 36118 ft 466 kts 316°
2026-05-05 15:14 63.02399 -7.66134 36121 ft 466 kts 316°
2026-05-05 15:14 63.07221 -7.75713 36127 ft 466 kts 316°
2026-05-05 15:15 63.12036 -7.85324 36116 ft 466 kts 316°
2026-05-05 15:15 63.16816 -7.94909 36114 ft 466 kts 316°
2026-05-05 15:16 63.21621 -8.04589 36146 ft 466 kts 316°
2026-05-05 15:16 63.26421 -8.14306 36124 ft 467 kts 316°
2026-05-05 15:17 63.31235 -8.24094 36122 ft 468 kts 316°
2026-05-05 15:17 63.36004 -8.33838 36120 ft 468 kts 316°
2026-05-05 15:18 63.40810 -8.43705 36116 ft 469 kts 316°
2026-05-05 15:18 63.45604 -8.53595 36114 ft 469 kts 315°
2026-05-05 15:19 63.50371 -8.63474 36130 ft 469 kts 316°
2026-05-05 15:19 63.55158 -8.73445 36114 ft 470 kts 316°
2026-05-05 15:20 63.59950 -8.83472 36115 ft 470 kts 315°
2026-05-05 15:20 63.64729 -8.93520 36112 ft 470 kts 315°
2026-05-05 15:21 63.69475 -9.03548 36125 ft 470 kts 315°
2026-05-05 15:21 63.74252 -9.13691 36123 ft 470 kts 315°
2026-05-05 15:22 63.79015 -9.23852 36129 ft 471 kts 315°
2026-05-05 15:22 63.83775 -9.34058 36119 ft 471 kts 315°
2026-05-05 15:23 63.88508 -9.44255 36118 ft 471 kts 315°
2026-05-05 15:23 63.93255 -9.54531 36121 ft 471 kts 315°
2026-05-05 15:24 63.97992 -9.64839 36119 ft 471 kts 315°
2026-05-05 15:24 64.02695 -9.75122 36124 ft 470 kts 315°
2026-05-05 15:25 64.07418 -9.85500 36135 ft 471 kts 315°
2026-05-05 15:25 64.12146 -9.95940 36130 ft 472 kts 315°
2026-05-05 15:26 64.16865 -10.06413 36130 ft 472 kts 315°
2026-05-05 15:26 64.21582 -10.16933 36131 ft 473 kts 315°
2026-05-05 15:27 64.26263 -10.27427 36134 ft 473 kts 315°
2026-05-05 15:27 64.30971 -10.38034 36121 ft 473 kts 315°
2026-05-05 15:28 64.35666 -10.48664 36132 ft 472 kts 315°
2026-05-05 15:28 64.40350 -10.59322 36142 ft 472 kts 314°
2026-05-05 15:29 64.45020 -10.70005 36140 ft 471 kts 314°
2026-05-05 15:29 64.49650 -10.80648 36141 ft 471 kts 314°
2026-05-05 15:30 64.54295 -10.91381 36141 ft 471 kts 314°
2026-05-05 15:30 64.58939 -11.02166 36163 ft 471 kts 314°
2026-05-05 15:31 64.63576 -11.12992 36160 ft 472 kts 314°
2026-05-05 15:31 64.68210 -11.23863 36158 ft 473 kts 314°
2026-05-05 15:32 64.72822 -11.34741 36154 ft 474 kts 314°
2026-05-05 15:32 64.77457 -11.45728 36145 ft 474 kts 314°
2026-05-05 15:33 64.82089 -11.56765 36154 ft 473 kts 314°
2026-05-05 15:33 64.86704 -11.67822 36170 ft 473 kts 314°
2026-05-05 15:34 64.91279 -11.78838 36169 ft 474 kts 314°
2026-05-05 15:34 64.95889 -11.89994 36172 ft 474 kts 314°
2026-05-05 15:35 65.00489 -12.01189 36173 ft 474 kts 313°
2026-05-05 15:35 65.04912 -12.12786 36175 ft 474 kts 311°
2026-05-05 15:36 65.09222 -12.24637 36175 ft 474 kts 310°
2026-05-05 15:36 65.13504 -12.36417 36187 ft 475 kts 311°
2026-05-05 15:37 65.17114 -12.46309 36184 ft 475 kts 311°
2026-05-05 15:37 65.21460 -12.58228 36176 ft 475 kts 311°
2026-05-05 15:38 65.25790 -12.70156 36184 ft 475 kts 310°
2026-05-05 15:38 65.30081 -12.82045 36192 ft 475 kts 310°
2026-05-05 15:39 65.34400 -12.94083 36198 ft 475 kts 310°
2026-05-05 15:39 65.38702 -13.06142 36204 ft 476 kts 310°
2026-05-05 15:40 65.42970 -13.18172 36210 ft 476 kts 310°
2026-05-05 15:40 65.47264 -13.30339 36207 ft 477 kts 310°
2026-05-05 15:41 65.51553 -13.42561 36207 ft 477 kts 310°
2026-05-05 15:41 65.55835 -13.54832 36209 ft 477 kts 310°
2026-05-05 15:42 65.60073 -13.67044 36210 ft 476 kts 310°
2026-05-05 15:42 65.64326 -13.79366 36223 ft 476 kts 310°
2026-05-05 15:43 65.68563 -13.91716 36222 ft 476 kts 310°
2026-05-05 15:43 65.72795 -14.04117 36232 ft 477 kts 310°
2026-05-05 15:44 65.77023 -14.16578 36231 ft 477 kts 310°
2026-05-05 15:44 65.81219 -14.29016 36235 ft 477 kts 309°
2026-05-05 15:45 65.85434 -14.41580 36241 ft 478 kts 309°
2026-05-05 15:45 65.89637 -14.54181 36251 ft 478 kts 309°
2026-05-05 15:46 65.93815 -14.66780 36250 ft 479 kts 309°
2026-05-05 15:46 65.98003 -14.79480 36239 ft 478 kts 309°
2026-05-05 15:47 66.02183 -14.92230 36244 ft 478 kts 309°
2026-05-05 15:47 66.06352 -15.05021 36258 ft 478 kts 309°
2026-05-05 15:48 66.10492 -15.17798 36261 ft 478 kts 309°
2026-05-05 15:48 66.14634 -15.30654 36274 ft 478 kts 309°
2026-05-05 15:49 66.18748 -15.43500 36273 ft 478 kts 309°
2026-05-05 15:49 66.22883 -15.56485 36274 ft 479 kts 309°
2026-05-05 15:50 66.27006 -15.69510 36268 ft 479 kts 309°
2026-05-05 15:50 66.31088 -15.82483 36270 ft 479 kts 308°
2026-05-05 15:51 66.35190 -15.95596 36267 ft 479 kts 308°
2026-05-05 15:51 66.39280 -16.08749 36277 ft 479 kts 308°
2026-05-05 15:52 66.43327 -16.21842 36287 ft 479 kts 308°
2026-05-05 15:52 66.47389 -16.35062 36280 ft 479 kts 308°
2026-05-05 15:53 66.51446 -16.48347 36299 ft 479 kts 308°
2026-05-05 15:53 66.55486 -16.61654 36291 ft 479 kts 308°
2026-05-05 15:54 66.59525 -16.75039 36302 ft 479 kts 308°
2026-05-05 15:54 66.63536 -16.88412 36294 ft 478 kts 308°
2026-05-05 15:55 66.67511 -17.01747 36294 ft 479 kts 308°
2026-05-05 15:55 66.71509 -17.15240 36296 ft 478 kts 308°
2026-05-05 15:56 66.75491 -17.28761 36316 ft 478 kts 307°
2026-05-05 15:56 66.79460 -17.42322 36312 ft 479 kts 307°
2026-05-05 15:57 66.83398 -17.55860 36316 ft 479 kts 307°
2026-05-05 15:57 66.87346 -17.69518 36320 ft 479 kts 307°
2026-05-05 15:58 66.91276 -17.83198 36318 ft 478 kts 307°
2026-05-05 15:58 66.95170 -17.96833 36329 ft 477 kts 307°
2026-05-05 15:59 66.99064 -18.10559 36337 ft 477 kts 307°
2026-05-05 15:59 67.02957 -18.24362 36320 ft 478 kts 307°
2026-05-05 16:00 67.06837 -18.38209 36339 ft 479 kts 306°
2026-05-05 16:00 67.10690 -18.52045 36343 ft 479 kts 307°
2026-05-05 16:01 67.14545 -18.65979 36346 ft 478 kts 306°
2026-05-05 16:01 67.18383 -18.79938 36346 ft 476 kts 306°
2026-05-05 16:02 67.22187 -18.93865 36357 ft 474 kts 307°
2026-05-05 16:02 67.25965 -19.07775 36346 ft 473 kts 306°
2026-05-05 16:03 67.29744 -19.21782 36365 ft 475 kts 306°
2026-05-05 16:03 67.33493 -19.35770 36373 ft 475 kts 306°
2026-05-05 16:04 67.37257 -19.49901 36380 ft 478 kts 306°
2026-05-05 16:04 67.41042 -19.64205 36404 ft 480 kts 306°
2026-05-05 16:05 67.44801 -19.78507 36382 ft 474 kts 306°
2026-05-05 16:05 67.48527 -19.92767 36388 ft 478 kts 306°
2026-05-05 16:06 67.52236 -20.07067 36398 ft 470 kts 306°
2026-05-05 16:06 67.55879 -20.21192 36395 ft 470 kts 306°
2026-05-05 16:07 67.59544 -20.35494 36405 ft 476 kts 305°
2026-05-05 16:07 67.63223 -20.49952 36436 ft 482 kts 306°
2026-05-05 16:08 67.66933 -20.64625 36423 ft 482 kts 305°
2026-05-05 16:08 67.70633 -20.79366 36434 ft 481 kts 305°
2026-05-05 16:09 67.74312 -20.94117 36427 ft 481 kts 304°
2026-05-05 16:09 67.77947 -21.08799 36442 ft 478 kts 305°
2026-05-05 16:10 67.81545 -21.23418 36448 ft 474 kts 304°
2026-05-05 16:10 67.85152 -21.38172 36452 ft 479 kts 304°
2026-05-05 16:11 67.88758 -21.53031 36465 ft 476 kts 305°
2026-05-05 16:12 67.95827 -21.82439 36480 ft 474 kts 305°
2026-05-05 16:13 68.04365 -22.20628 36484 ft 473 kts 301°
2026-05-05 16:13 68.07512 -22.36034 36492 ft 478 kts 300°
2026-05-05 16:14 68.13897 -22.67424 36504 ft 476 kts 301°
2026-05-05 16:15 68.20152 -22.98442 36510 ft 474 kts 300°
2026-05-05 16:16 68.26496 -23.30411 36532 ft 489 kts 300°
2026-05-05 16:17 68.31271 -23.54803 36534 ft 493 kts 299°
2026-05-05 16:18 68.36048 -23.79487 36510 ft 491 kts 299°
2026-05-05 16:19 68.40728 -24.03965 36535 ft 486 kts 299°
2026-05-05 16:19 68.45345 -24.28394 36543 ft 483 kts 298°
2026-05-05 16:20 68.51420 -24.60977 36549 ft 482 kts 298°
2026-05-05 16:22 68.58955 -25.02125 36553 ft 486 kts 298°
2026-05-05 16:23 68.64923 -25.35314 36552 ft 486 kts 298°
2026-05-05 16:23 68.68868 -25.57557 36551 ft 485 kts 297°
2026-05-05 16:24 68.71812 -25.74312 36554 ft 485 kts 297°
2026-05-05 16:25 68.76181 -25.99442 36548 ft 484 kts 297°
2026-05-05 16:25 68.80490 -26.24531 36555 ft 484 kts 297°
2026-05-05 16:26 68.86198 -26.58260 36566 ft 484 kts 297°
2026-05-05 16:27 68.89027 -26.75195 36548 ft 484 kts 297°
2026-05-05 16:27 68.91849 -26.92229 36571 ft 483 kts 296°
2026-05-05 16:28 68.94621 -27.09105 36574 ft 482 kts 296°
2026-05-05 16:28 68.97393 -27.26127 36572 ft 482 kts 296°
2026-05-05 16:29 69.00147 -27.43181 36598 ft 482 kts 296°
2026-05-05 16:29 69.02884 -27.60284 36584 ft 482 kts 296°
2026-05-05 16:30 69.05588 -27.77326 36610 ft 482 kts 296°
2026-05-05 16:30 69.08291 -27.94509 36611 ft 482 kts 296°
2026-05-05 16:31 69.10976 -28.11732 36606 ft 482 kts 295°
2026-05-05 16:31 69.13639 -28.28967 36599 ft 481 kts 295°
2026-05-05 16:32 69.16280 -28.46219 36603 ft 480 kts 295°
2026-05-05 16:32 69.18897 -28.63460 36604 ft 479 kts 295°
2026-05-05 16:33 69.21500 -28.80765 36612 ft 480 kts 295°
2026-05-05 16:33 69.24091 -28.98149 36619 ft 481 kts 295°
2026-05-05 16:34 69.26651 -29.15477 36635 ft 482 kts 295°
2026-05-05 16:34 69.29215 -29.33000 36648 ft 483 kts 295°
2026-05-05 16:35 69.31767 -29.50606 36655 ft 484 kts 294°
2026-05-05 16:35 69.34289 -29.68169 36647 ft 484 kts 294°
2026-05-05 16:36 69.36805 -29.85852 36650 ft 482 kts 294°
2026-05-05 16:36 69.39293 -30.03512 36660 ft 480 kts 294°
2026-05-05 16:37 69.41753 -30.21136 36671 ft 479 kts 294°
2026-05-05 16:37 69.44175 -30.38648 36671 ft 477 kts 294°
2026-05-05 16:38 69.46588 -30.56269 36684 ft 477 kts 294°
2026-05-05 16:38 69.48984 -30.73932 36689 ft 477 kts 294°
2026-05-05 16:39 69.51345 -30.91510 36680 ft 478 kts 293°
2026-05-05 16:39 69.53710 -31.09290 36677 ft 479 kts 293°
2026-05-05 16:40 69.56064 -31.27162 36647 ft 479 kts 293°
2026-05-05 16:40 69.58390 -31.45000 36669 ft 477 kts 293°
2026-05-05 16:41 69.60692 -31.62837 36653 ft 476 kts 293°
2026-05-05 16:41 69.62958 -31.80562 36656 ft 475 kts 292°
2026-05-05 16:42 69.65212 -31.98382 36656 ft 474 kts 292°
2026-05-05 16:42 69.67452 -32.16261 36658 ft 474 kts 292°
2026-05-05 16:43 69.69652 -32.34005 36655 ft 474 kts 292°
2026-05-05 16:43 69.71848 -32.51905 36663 ft 474 kts 292°
2026-05-05 16:44 69.74031 -32.69881 36663 ft 474 kts 292°
2026-05-05 16:44 69.76181 -32.87771 36652 ft 474 kts 292°
2026-05-05 16:45 69.78324 -33.05795 36671 ft 473 kts 292°
2026-05-05 16:45 69.80447 -33.23846 36672 ft 472 kts 292°
2026-05-05 16:46 69.82535 -33.41777 36676 ft 472 kts 291°
2026-05-05 16:46 69.84618 -33.59867 36678 ft 471 kts 291°
2026-05-05 16:47 69.86674 -33.77920 36682 ft 471 kts 291°
2026-05-05 16:47 69.88698 -33.95883 36692 ft 471 kts 291°
2026-05-05 16:48 69.90720 -34.14017 36688 ft 471 kts 291°
2026-05-05 16:48 69.92723 -34.32193 36698 ft 471 kts 291°
2026-05-05 16:49 69.94699 -34.50328 36695 ft 471 kts 290°
2026-05-05 16:49 69.96669 -34.68604 36692 ft 472 kts 290°
2026-05-05 16:50 69.98622 -34.86907 36692 ft 472 kts 290°
2026-05-05 16:50 70.00858 -35.04860 36686 ft 468 kts 298°
2026-05-05 16:51 70.03882 -35.21537 36686 ft 467 kts 301°
2026-05-05 16:51 70.06986 -35.38268 36705 ft 467 kts 301°
2026-05-05 16:52 70.10055 -35.55061 36688 ft 467 kts 300°
2026-05-05 16:52 70.13098 -35.71960 36688 ft 467 kts 300°
2026-05-05 16:53 70.16115 -35.88888 36694 ft 467 kts 300°
2026-05-05 16:53 70.19099 -36.05775 36697 ft 467 kts 300°
2026-05-05 16:54 70.22087 -36.22823 36700 ft 467 kts 300°
2026-05-05 16:54 70.25062 -36.39930 36680 ft 467 kts 300°
2026-05-05 16:55 70.28014 -36.57051 36686 ft 466 kts 300°
2026-05-05 16:55 70.30938 -36.74154 36686 ft 463 kts 299°
2026-05-05 16:56 70.33809 -36.91088 36686 ft 461 kts 299°
2026-05-05 16:56 70.36679 -37.08154 36690 ft 459 kts 299°
2026-05-05 16:57 70.39499 -37.25062 36695 ft 458 kts 299°
2026-05-05 16:57 70.42315 -37.42089 36695 ft 458 kts 299°
2026-05-05 16:58 70.45117 -37.59171 36696 ft 458 kts 298°
2026-05-05 16:58 70.47911 -37.76359 36696 ft 459 kts 298°
2026-05-05 16:59 70.50672 -37.93483 36695 ft 459 kts 298°
2026-05-05 16:59 70.53433 -38.10763 36698 ft 460 kts 298°
2026-05-05 17:00 70.56186 -38.28141 36706 ft 460 kts 298°
2026-05-05 17:00 70.58921 -38.45553 36711 ft 461 kts 298°
2026-05-05 17:01 70.61627 -38.62936 36707 ft 461 kts 297°
2026-05-05 17:01 70.64327 -38.80436 36686 ft 460 kts 297°
2026-05-05 17:02 70.67000 -38.97918 36702 ft 457 kts 297°
2026-05-05 17:02 70.69647 -39.15385 36715 ft 455 kts 297°
2026-05-05 17:03 70.72250 -39.32708 36727 ft 454 kts 297°
2026-05-05 17:03 70.74844 -39.50125 36729 ft 453 kts 297°
2026-05-05 17:04 70.77417 -39.67562 36716 ft 453 kts 297°
2026-05-05 17:04 70.79963 -39.84965 36715 ft 453 kts 297°
2026-05-05 17:05 70.82509 -40.02529 36721 ft 453 kts 296°
2026-05-05 17:05 70.85039 -40.20145 36725 ft 454 kts 296°
2026-05-05 17:06 70.87553 -40.37811 36728 ft 454 kts 296°
2026-05-05 17:06 70.90053 -40.55541 36728 ft 455 kts 296°
2026-05-05 17:07 70.92120 -40.70329 36724 ft 455 kts 296°
2026-05-05 17:07 70.94988 -40.91043 36732 ft 455 kts 296°
2026-05-05 17:08 70.97442 -41.08941 36721 ft 455 kts 295°
2026-05-05 17:08 70.99461 -41.23805 36723 ft 452 kts 295°
2026-05-05 17:09 71.01857 -41.41597 36728 ft 449 kts 295°
2026-05-05 17:09 71.04212 -41.59249 36729 ft 447 kts 295°
2026-05-05 17:10 71.06560 -41.77012 36734 ft 446 kts 295°
2026-05-05 17:10 71.08884 -41.94765 36735 ft 446 kts 295°
2026-05-05 17:11 71.11171 -42.12405 36732 ft 446 kts 295°
2026-05-05 17:11 71.13464 -42.30257 36728 ft 446 kts 294°
2026-05-05 17:12 71.15734 -42.48111 36736 ft 446 kts 294°
2026-05-05 17:12 71.17980 -42.65950 36736 ft 447 kts 294°
2026-05-05 17:13 71.20224 -42.83950 36735 ft 447 kts 294°
2026-05-05 17:13 71.22450 -43.01991 36735 ft 447 kts 294°
2026-05-05 17:14 71.24645 -43.19957 36735 ft 447 kts 294°
2026-05-05 17:14 71.26837 -43.38075 36728 ft 447 kts 293°
2026-05-05 17:15 71.29010 -43.56233 36693 ft 447 kts 293°
2026-05-05 17:15 71.31157 -43.74355 36726 ft 444 kts 293°
2026-05-05 17:16 71.33274 -43.92413 36731 ft 442 kts 293°
2026-05-05 17:16 71.35354 -44.10339 36730 ft 440 kts 292°
2026-05-05 17:17 71.37428 -44.28389 36726 ft 440 kts 292°
2026-05-05 17:17 71.39481 -44.46446 36726 ft 439 kts 292°
2026-05-05 17:18 71.41504 -44.64427 36731 ft 439 kts 292°
2026-05-05 17:18 71.43520 -44.82545 36734 ft 440 kts 292°
2026-05-05 17:19 71.45521 -45.00716 36728 ft 440 kts 291°
2026-05-05 17:19 71.47492 -45.18818 36708 ft 440 kts 291°
2026-05-05 17:20 71.49461 -45.37087 36706 ft 441 kts 291°
2026-05-05 17:20 71.51408 -45.55359 36704 ft 441 kts 291°
2026-05-05 17:21 71.53344 -45.73735 36722 ft 441 kts 290°
2026-05-05 17:22 71.56218 -46.01390 36701 ft 441 kts 290°
2026-05-05 17:22 71.58096 -46.19721 36687 ft 439 kts 290°
2026-05-05 17:23 71.59957 -46.38093 36695 ft 437 kts 290°
2026-05-05 17:23 71.61791 -46.56415 36696 ft 435 kts 290°
2026-05-05 17:24 71.63600 -46.74683 36690 ft 434 kts 289°
2026-05-05 17:24 71.65376 -46.92830 36686 ft 433 kts 289°
2026-05-05 17:25 71.67145 -47.11113 36678 ft 433 kts 289°
2026-05-05 17:25 71.68898 -47.29447 36677 ft 433 kts 289°
2026-05-05 17:26 71.70636 -47.47853 36659 ft 434 kts 288°
2026-05-05 17:26 71.72345 -47.66162 36661 ft 434 kts 288°
2026-05-05 17:27 71.74050 -47.84649 36662 ft 435 kts 288°
2026-05-05 17:27 71.75741 -48.03204 36649 ft 435 kts 288°
2026-05-05 17:28 71.77413 -48.21788 36628 ft 435 kts 288°
2026-05-05 17:28 71.79060 -48.40327 36612 ft 436 kts 287°
2026-05-05 17:29 71.80695 -48.58967 36612 ft 436 kts 287°
2026-05-05 17:29 71.82316 -48.77682 36606 ft 434 kts 287°
2026-05-05 17:30 71.83910 -48.96331 36617 ft 432 kts 287°
2026-05-05 17:30 71.85474 -49.14860 36615 ft 431 kts 287°
2026-05-05 17:31 71.87023 -49.33462 36613 ft 430 kts 286°
2026-05-05 17:31 71.88552 -49.52046 36607 ft 430 kts 285°
2026-05-05 17:32 71.90052 -49.70541 36611 ft 430 kts 285°
2026-05-05 17:32 71.91544 -49.89187 36607 ft 430 kts 285°
2026-05-05 17:33 71.93020 -50.07884 36582 ft 430 kts 285°
2026-05-05 17:33 71.94470 -50.26495 36588 ft 431 kts 285°
2026-05-05 17:34 71.95914 -50.45298 36567 ft 431 kts 285°
2026-05-05 17:34 71.97334 -50.64038 36570 ft 431 kts 285°
2026-05-05 17:35 71.98746 -50.82920 36570 ft 432 kts 284°
2026-05-05 17:35 71.99648 -51.02122 36562 ft 433 kts 276°
2026-05-05 17:36 71.99616 -51.21682 36520 ft 436 kts 269°
2026-05-05 17:36 71.99193 -51.41103 36544 ft 435 kts 269°
2026-05-05 17:37 71.98747 -51.60600 36554 ft 435 kts 269°
2026-05-05 17:37 71.98298 -51.80090 36545 ft 435 kts 269°
2026-05-05 17:38 71.97839 -51.99576 36510 ft 434 kts 269°
2026-05-05 17:38 71.97365 -52.19007 36479 ft 433 kts 268°
2026-05-05 17:39 71.96875 -52.38244 36499 ft 432 kts 268°
2026-05-05 17:39 71.96363 -52.57617 36469 ft 432 kts 268°
2026-05-05 17:40 71.95836 -52.76828 36414 ft 433 kts 268°
2026-05-05 17:40 71.95285 -52.96182 36365 ft 433 kts 267°
2026-05-05 17:41 71.94717 -53.15431 36403 ft 430 kts 267°
2026-05-05 17:41 71.94130 -53.34672 36383 ft 430 kts 267°
2026-05-05 17:42 71.93525 -53.53893 36368 ft 431 kts 267°
2026-05-05 17:42 71.92905 -53.72980 36395 ft 430 kts 266°
2026-05-05 17:43 71.92262 -53.92173 36387 ft 431 kts 266°
2026-05-05 17:43 71.91600 -54.11329 36382 ft 430 kts 266°
2026-05-05 17:44 71.90918 -54.30482 36380 ft 430 kts 265°
2026-05-05 17:44 71.90219 -54.49616 36370 ft 430 kts 265°
2026-05-05 17:45 71.89505 -54.68633 36337 ft 430 kts 265°
2026-05-05 17:45 71.88771 -54.87704 36345 ft 429 kts 265°
2026-05-05 17:46 71.88022 -55.06625 36349 ft 429 kts 265°
2026-05-05 17:46 71.87247 -55.25710 36358 ft 429 kts 264°
2026-05-05 17:47 71.86460 -55.44631 36349 ft 429 kts 264°
2026-05-05 17:47 71.85651 -55.63608 36358 ft 429 kts 264°
2026-05-05 17:48 71.84824 -55.82555 36341 ft 429 kts 264°
2026-05-05 17:48 71.83978 -56.01510 36349 ft 428 kts 263°
2026-05-05 17:49 71.83116 -56.20380 36348 ft 428 kts 263°
2026-05-05 17:49 71.82235 -56.39249 36348 ft 428 kts 263°
2026-05-05 17:50 71.81341 -56.57976 36354 ft 428 kts 263°
2026-05-05 17:50 71.80423 -56.76820 36348 ft 428 kts 263°
2026-05-05 17:51 71.79488 -56.95630 36353 ft 428 kts 262°
2026-05-05 17:51 71.78531 -57.14460 36360 ft 428 kts 262°
2026-05-05 17:52 71.77557 -57.33260 36360 ft 428 kts 262°
2026-05-05 17:52 71.76566 -57.52016 36353 ft 428 kts 262°
2026-05-05 17:53 71.75556 -57.70762 36353 ft 428 kts 262°
2026-05-05 17:53 71.74529 -57.89472 36361 ft 428 kts 261°
2026-05-05 17:54 71.73492 -58.08032 36326 ft 428 kts 261°
2026-05-05 17:54 71.72431 -58.26657 36349 ft 427 kts 261°
2026-05-05 17:55 71.71349 -58.45322 36373 ft 428 kts 260°
2026-05-05 17:55 71.70435 -58.60830 36367 ft 428 kts 260°
2026-05-05 17:56 71.69321 -58.79429 36359 ft 428 kts 260°
2026-05-05 17:56 71.68198 -58.97870 36372 ft 427 kts 260°
2026-05-05 17:57 71.67049 -59.16414 36371 ft 427 kts 259°
2026-05-05 17:57 71.65883 -59.34926 36372 ft 427 kts 259°
2026-05-05 17:58 71.64698 -59.53426 36367 ft 427 kts 259°
2026-05-05 17:58 71.63504 -59.71774 36346 ft 427 kts 259°
2026-05-05 17:59 71.62286 -59.90199 36392 ft 427 kts 258°
2026-05-05 17:59 71.61049 -60.08615 36370 ft 427 kts 258°
2026-05-05 18:00 71.59792 -60.27032 36375 ft 427 kts 258°
2026-05-05 18:00 71.58522 -60.45366 36381 ft 426 kts 258°
2026-05-05 18:01 71.57244 -60.63539 36378 ft 426 kts 257°
2026-05-05 18:01 71.55938 -60.81834 36385 ft 426 kts 257°
2026-05-05 18:02 71.54614 -61.00113 36386 ft 426 kts 257°
2026-05-05 18:02 71.53274 -61.18354 36385 ft 426 kts 257°
2026-05-05 18:03 71.51924 -61.36453 36356 ft 426 kts 257°
2026-05-05 18:03 71.50550 -61.54637 36387 ft 426 kts 256°
2026-05-05 18:04 71.49157 -61.72803 36386 ft 426 kts 256°
2026-05-05 18:04 71.47747 -61.90946 36385 ft 426 kts 256°
2026-05-05 18:05 71.46318 -62.09071 36391 ft 426 kts 256°
2026-05-05 18:05 71.44883 -62.27047 36391 ft 426 kts 255°
2026-05-05 18:06 71.43421 -62.45109 36391 ft 426 kts 255°
2026-05-05 18:06 71.41950 -62.63039 36399 ft 426 kts 255°
2026-05-05 18:07 71.40457 -62.81009 36393 ft 426 kts 255°
2026-05-05 18:07 71.38946 -62.98963 36376 ft 426 kts 254°
2026-05-05 18:08 71.37417 -63.16911 36390 ft 426 kts 254°
2026-05-05 18:08 71.35872 -63.34798 36399 ft 426 kts 253°
2026-05-05 18:09 71.34320 -63.52555 36399 ft 426 kts 253°
2026-05-05 18:09 71.32743 -63.70378 36399 ft 426 kts 253°
2026-05-05 18:10 71.31149 -63.88168 36396 ft 426 kts 253°
2026-05-05 18:10 71.29540 -64.05911 36400 ft 425 kts 253°
2026-05-05 18:11 71.27910 -64.23677 36399 ft 425 kts 253°
2026-05-05 18:11 71.26277 -64.41263 36431 ft 426 kts 252°
2026-05-05 18:12 71.24614 -64.58971 36387 ft 426 kts 252°
2026-05-05 18:12 71.22934 -64.76647 36398 ft 426 kts 252°
2026-05-05 18:13 71.21247 -64.94185 36398 ft 426 kts 252°
2026-05-05 18:13 71.19536 -65.11784 36407 ft 426 kts 251°
2026-05-05 18:14 71.17808 -65.29349 36407 ft 426 kts 251°
2026-05-05 18:14 71.16063 -65.46886 36407 ft 426 kts 251°
2026-05-05 18:15 71.14313 -65.64288 36409 ft 426 kts 251°
2026-05-05 18:15 71.12536 -65.81768 36410 ft 426 kts 251°
2026-05-05 18:16 71.10754 -65.99095 36407 ft 426 kts 251°
2026-05-05 18:16 71.08945 -66.16504 36393 ft 426 kts 251°
2026-05-05 18:17 71.07122 -66.33866 36407 ft 425 kts 250°
2026-05-05 18:17 71.05286 -66.51165 36407 ft 425 kts 250°
2026-05-05 18:18 71.03443 -66.68359 36412 ft 425 kts 250°
2026-05-05 18:18 71.01575 -66.85619 36414 ft 426 kts 250°
2026-05-05 18:19 71.00087 -67.03255 36418 ft 428 kts 257°
2026-05-05 18:19 70.99419 -67.21470 36454 ft 430 kts 262°
2026-05-05 18:20 70.98972 -67.39824 36424 ft 431 kts 262°
2026-05-05 18:20 70.98505 -67.58089 36417 ft 432 kts 262°
2026-05-05 18:21 70.98008 -67.76461 36422 ft 432 kts 261°
2026-05-05 18:21 70.97489 -67.94844 36420 ft 432 kts 261°
2026-05-05 18:22 70.96949 -68.13231 36509 ft 435 kts 261°
2026-05-05 18:22 70.96674 -68.22359 36722 ft 436 kts 261°
2026-05-05 18:22 70.96390 -68.31622 36946 ft 437 kts 261°
2026-05-05 18:22 70.96101 -68.40911 37153 ft 438 kts 261°
2026-05-05 18:23 70.95808 -68.50203 37359 ft 440 kts 261°
2026-05-05 18:23 70.95198 -68.69011 37651 ft 445 kts 261°
2026-05-05 18:23 70.94886 -68.78427 37847 ft 446 kts 261°
2026-05-05 18:24 70.94567 -68.87913 38021 ft 448 kts 261°
2026-05-05 18:24 70.94247 -68.97290 38170 ft 449 kts 261°
2026-05-05 18:24 70.93916 -69.06828 38330 ft 451 kts 261°
2026-05-05 18:25 70.93237 -69.25983 38428 ft 454 kts 261°
2026-05-05 18:25 70.92538 -69.45140 38425 ft 452 kts 261°
2026-05-05 18:26 70.91821 -69.64221 38433 ft 450 kts 261°
2026-05-05 18:26 70.91091 -69.83124 38434 ft 450 kts 260°
2026-05-05 18:27 70.90334 -70.02156 38437 ft 451 kts 260°
2026-05-05 18:27 70.89554 -70.21282 38432 ft 453 kts 260°
2026-05-05 18:28 70.88354 -70.49792 38419 ft 455 kts 259°
2026-05-05 18:28 70.87522 -70.68969 38436 ft 455 kts 259°
2026-05-05 18:29 70.86670 -70.88104 38412 ft 456 kts 259°
2026-05-05 18:29 70.85802 -71.07153 38415 ft 457 kts 259°
2026-05-05 18:30 70.84907 -71.26331 38396 ft 458 kts 258°
2026-05-05 18:30 70.83992 -71.45523 38406 ft 458 kts 258°
2026-05-05 18:31 70.83054 -71.64740 38392 ft 459 kts 258°
2026-05-05 18:31 70.82095 -71.83917 38372 ft 458 kts 258°
2026-05-05 18:32 70.81119 -72.03095 38347 ft 458 kts 258°
2026-05-05 18:32 70.80129 -72.22113 38348 ft 459 kts 258°
2026-05-05 18:33 70.79112 -72.41250 38341 ft 460 kts 258°
2026-05-05 18:33 70.78070 -72.60450 38337 ft 461 kts 257°
2026-05-05 18:34 70.77006 -72.79673 38339 ft 462 kts 257°
2026-05-05 18:34 70.75928 -72.98768 38321 ft 462 kts 257°
2026-05-05 18:35 70.74819 -73.18041 38318 ft 463 kts 257°
2026-05-05 18:35 70.73694 -73.37229 38335 ft 463 kts 257°
2026-05-05 18:36 70.72545 -73.56440 38329 ft 464 kts 256°
2026-05-05 18:36 70.71382 -73.75546 38336 ft 465 kts 256°
2026-05-05 18:37 70.70188 -73.94800 38339 ft 465 kts 256°
2026-05-05 18:37 70.68974 -74.14030 38348 ft 466 kts 256°
2026-05-05 18:38 70.67737 -74.33295 38345 ft 466 kts 256°
2026-05-05 18:38 70.66490 -74.52374 38343 ft 466 kts 256°
2026-05-05 18:39 70.65214 -74.71556 38332 ft 467 kts 256°
2026-05-05 18:39 70.63916 -74.90739 38326 ft 468 kts 255°
2026-05-05 18:40 70.62592 -75.09984 38353 ft 468 kts 255°
2026-05-05 18:40 70.61248 -75.29219 38334 ft 469 kts 255°
2026-05-05 18:41 70.59891 -75.48324 38326 ft 470 kts 255°
2026-05-05 18:41 70.58503 -75.67545 38312 ft 470 kts 255°
2026-05-05 18:42 70.57094 -75.86753 38322 ft 471 kts 255°
2026-05-05 18:42 70.55906 -76.02712 38319 ft 471 kts 255°
2026-05-05 18:43 70.54456 -76.21923 38314 ft 472 kts 254°
2026-05-05 18:43 70.52982 -76.41164 38310 ft 472 kts 254°
2026-05-05 18:44 70.51498 -76.60241 38301 ft 472 kts 254°
2026-05-05 18:44 70.49985 -76.79396 38299 ft 472 kts 254°
2026-05-05 18:45 70.48462 -76.98412 38328 ft 472 kts 253°
2026-05-05 18:45 70.46905 -77.17552 38306 ft 473 kts 253°
2026-05-05 18:46 70.45329 -77.36661 38297 ft 474 kts 253°
2026-05-05 18:46 70.43729 -77.55786 38276 ft 474 kts 253°
2026-05-05 18:47 70.42120 -77.74751 38282 ft 474 kts 253°
2026-05-05 18:47 70.40478 -77.93837 38282 ft 474 kts 253°
2026-05-05 18:48 70.38819 -78.12868 38278 ft 475 kts 252°
2026-05-05 18:48 70.37140 -78.31857 38285 ft 474 kts 252°
2026-05-05 18:49 70.35436 -78.50870 38264 ft 475 kts 252°
2026-05-05 18:49 70.33726 -78.69710 38272 ft 474 kts 252°
2026-05-05 18:50 70.31988 -78.88601 38270 ft 474 kts 252°
2026-05-05 18:50 70.30233 -79.07428 38270 ft 473 kts 252°
2026-05-05 18:51 70.28458 -79.26228 38286 ft 473 kts 251°
2026-05-05 18:51 70.26664 -79.44996 38276 ft 474 kts 251°
2026-05-05 18:52 70.24843 -79.63795 38268 ft 475 kts 251°
2026-05-05 18:52 70.23013 -79.82465 38270 ft 476 kts 251°
2026-05-05 18:53 70.21150 -80.01242 38276 ft 476 kts 251°
2026-05-05 18:53 70.19264 -80.20013 38277 ft 477 kts 251°
2026-05-05 18:54 70.17353 -80.38797 38271 ft 478 kts 250°
2026-05-05 18:54 70.15438 -80.57407 38277 ft 479 kts 250°
2026-05-05 18:55 70.13474 -80.76262 38283 ft 479 kts 250°
2026-05-05 18:55 70.11516 -80.94840 38279 ft 479 kts 250°
2026-05-05 18:56 70.09519 -81.13568 38277 ft 479 kts 250°
2026-05-05 18:56 70.07507 -81.32217 38273 ft 479 kts 250°
2026-05-05 18:57 70.05473 -81.50856 38275 ft 479 kts 250°
2026-05-05 18:57 70.03436 -81.69309 38279 ft 479 kts 250°
2026-05-05 18:58 70.01372 -81.87835 38257 ft 480 kts 249°
2026-05-05 18:58 69.99070 -82.06059 38266 ft 477 kts 242°
2026-05-05 18:59 69.96116 -82.23410 38263 ft 477 kts 241°
2026-05-05 18:59 69.93128 -82.40728 38283 ft 477 kts 241°
2026-05-05 19:00 69.90151 -82.58010 38283 ft 478 kts 241°
2026-05-05 19:00 69.87185 -82.75180 38280 ft 478 kts 241°
2026-05-05 19:01 69.84181 -82.92450 38281 ft 479 kts 241°
2026-05-05 19:01 69.81152 -83.09713 38278 ft 480 kts 241°
2026-05-05 19:02 69.78106 -83.26923 38277 ft 480 kts 240°
2026-05-05 19:02 69.75063 -83.43970 38276 ft 480 kts 240°
2026-05-05 19:03 69.71978 -83.61104 38270 ft 480 kts 240°
2026-05-05 19:03 69.68895 -83.78094 38283 ft 480 kts 240°
2026-05-05 19:04 69.65775 -83.95140 38279 ft 482 kts 240°
2026-05-05 19:04 69.62631 -84.12179 38275 ft 482 kts 240°
2026-05-05 19:05 69.59483 -84.29101 38278 ft 483 kts 240°
2026-05-05 19:05 69.56298 -84.46084 38262 ft 484 kts 239°
2026-05-05 19:06 69.53095 -84.63025 38267 ft 483 kts 239°
2026-05-05 19:06 69.49879 -84.79896 38265 ft 483 kts 239°
2026-05-05 19:07 69.46648 -84.96711 38271 ft 483 kts 239°
2026-05-05 19:07 69.43421 -85.13371 38253 ft 484 kts 239°
2026-05-05 19:08 69.40148 -85.30136 38249 ft 484 kts 239°
2026-05-05 19:08 69.36862 -85.46832 38255 ft 484 kts 239°
2026-05-05 19:09 69.33578 -85.63386 38255 ft 484 kts 239°
2026-05-05 19:09 69.30250 -85.80035 38257 ft 484 kts 238°
2026-05-05 19:10 69.26915 -85.96584 38275 ft 484 kts 238°
2026-05-05 19:10 69.23574 -86.13035 38255 ft 485 kts 238°
2026-05-05 19:11 69.20219 -86.29430 38248 ft 485 kts 238°
2026-05-05 19:11 69.16828 -86.45871 38257 ft 486 kts 238°
2026-05-05 19:12 69.13422 -86.62261 38251 ft 486 kts 238°
2026-05-05 19:12 69.09998 -86.78604 38254 ft 486 kts 238°
2026-05-05 19:13 69.06558 -86.94907 38256 ft 486 kts 238°
2026-05-05 19:13 69.03119 -87.11076 38261 ft 487 kts 238°
2026-05-05 19:14 68.99633 -87.27342 38262 ft 487 kts 237°
2026-05-05 19:14 68.96135 -87.43545 38253 ft 488 kts 237°
2026-05-05 19:15 68.92640 -87.59609 38253 ft 488 kts 237°
2026-05-05 19:15 68.89109 -87.75722 38261 ft 488 kts 237°
2026-05-05 19:16 68.85564 -87.91771 38261 ft 488 kts 237°
2026-05-05 19:16 68.82009 -88.07751 38266 ft 488 kts 237°
2026-05-05 19:17 68.78432 -88.23709 38261 ft 488 kts 237°
2026-05-05 19:17 68.74848 -88.39584 38261 ft 489 kts 237°
2026-05-05 19:18 68.71230 -88.55489 38254 ft 489 kts 236°
2026-05-05 19:18 68.67598 -88.71337 38253 ft 489 kts 236°
2026-05-05 19:19 68.63976 -88.87030 38259 ft 490 kts 236°
2026-05-05 19:19 68.60312 -89.02789 38258 ft 490 kts 236°
2026-05-05 19:20 68.56637 -89.18483 38252 ft 490 kts 236°
2026-05-05 19:20 68.52941 -89.34149 38258 ft 489 kts 236°
2026-05-05 19:21 68.49236 -89.49740 38257 ft 489 kts 236°
2026-05-05 19:21 68.45542 -89.65178 38258 ft 490 kts 236°
2026-05-05 19:22 68.41805 -89.80683 38260 ft 490 kts 235°
2026-05-05 19:22 68.38050 -89.96150 38255 ft 490 kts 235°
2026-05-05 19:23 68.34284 -90.11550 38270 ft 490 kts 235°
2026-05-05 19:23 68.30500 -90.26922 38263 ft 490 kts 235°
2026-05-05 19:24 68.26726 -90.42141 38279 ft 490 kts 235°
2026-05-05 19:24 68.22915 -90.57404 38276 ft 490 kts 235°
2026-05-05 19:25 68.19091 -90.72612 38277 ft 490 kts 234°
2026-05-05 19:25 68.15251 -90.87779 38273 ft 491 kts 234°
2026-05-05 19:26 68.11395 -91.02899 38281 ft 491 kts 234°
2026-05-05 19:26 68.07509 -91.18039 38268 ft 492 kts 234°
2026-05-05 19:27 68.03633 -91.33031 38274 ft 493 kts 234°
2026-05-05 19:27 67.99718 -91.48071 38273 ft 493 kts 234°
2026-05-05 19:28 67.96454 -91.60530 38269 ft 493 kts 234°
2026-05-05 19:28 67.92511 -91.75488 38267 ft 493 kts 234°
2026-05-05 19:29 67.88564 -91.90360 38280 ft 493 kts 234°
2026-05-05 19:29 67.84616 -92.05138 38268 ft 493 kts 234°
2026-05-05 19:30 67.80630 -92.19953 38271 ft 493 kts 234°
2026-05-05 19:30 67.76638 -92.34693 38267 ft 493 kts 233°
2026-05-05 19:31 67.72628 -92.49398 38269 ft 493 kts 233°
2026-05-05 19:31 67.68634 -92.63950 38276 ft 493 kts 233°
2026-05-05 19:32 67.64605 -92.78531 38270 ft 493 kts 233°
2026-05-05 19:32 67.60557 -92.93080 38269 ft 493 kts 233°
2026-05-05 19:33 67.56498 -93.07575 38274 ft 494 kts 233°
2026-05-05 19:33 67.52422 -93.22035 38279 ft 494 kts 233°
2026-05-05 19:34 67.48344 -93.36409 38277 ft 495 kts 233°
2026-05-05 19:35 67.42164 -93.58012 38280 ft 496 kts 232°
2026-05-05 19:35 67.38019 -93.72382 38282 ft 497 kts 233°
2026-05-05 19:36 67.33884 -93.86623 38281 ft 497 kts 233°
2026-05-05 19:36 67.29698 -94.00950 38280 ft 498 kts 233°
2026-05-05 19:37 67.25500 -94.15222 38286 ft 498 kts 232°
2026-05-05 19:37 67.21286 -94.29457 38281 ft 498 kts 232°
2026-05-05 19:38 67.17087 -94.43550 38282 ft 498 kts 232°
2026-05-05 19:38 67.12852 -94.57672 38279 ft 498 kts 232°
2026-05-05 19:39 67.08604 -94.71749 38290 ft 498 kts 232°
2026-05-05 19:39 67.04338 -94.85802 38280 ft 499 kts 232°
2026-05-05 19:40 67.00060 -94.99833 38277 ft 499 kts 233°
2026-05-05 19:40 66.96078 -95.14238 38293 ft 499 kts 235°
2026-05-05 19:41 66.92133 -95.28819 38279 ft 499 kts 235°
2026-05-05 19:41 66.88168 -95.43356 38290 ft 499 kts 235°
2026-05-05 19:42 66.84193 -95.57772 38289 ft 500 kts 235°
2026-05-05 19:42 66.80175 -95.72225 38301 ft 500 kts 235°
2026-05-05 19:43 66.76144 -95.86626 38293 ft 501 kts 235°
2026-05-05 19:43 66.72112 -96.00937 38296 ft 501 kts 234°
2026-05-05 19:44 66.68052 -96.15261 38300 ft 502 kts 234°
2026-05-05 19:44 66.63971 -96.29564 38297 ft 502 kts 234°
2026-05-05 19:45 66.59875 -96.43827 38299 ft 503 kts 235°
2026-05-05 19:45 66.55783 -96.57988 38303 ft 503 kts 234°
2026-05-05 19:46 66.51657 -96.72173 38318 ft 503 kts 234°
2026-05-05 19:46 66.47517 -96.86313 38304 ft 503 kts 234°
2026-05-05 19:47 66.43362 -97.00415 38304 ft 503 kts 234°
2026-05-05 19:47 66.39193 -97.14472 38303 ft 503 kts 234°
2026-05-05 19:48 66.35012 -97.28486 38319 ft 504 kts 234°
2026-05-05 19:48 66.30842 -97.42371 38317 ft 504 kts 234°
2026-05-05 19:49 66.26611 -97.56374 38315 ft 504 kts 234°
2026-05-05 19:49 66.22383 -97.70276 38324 ft 505 kts 234°
2026-05-05 19:50 66.18141 -97.84138 38325 ft 505 kts 234°
2026-05-05 19:50 66.13909 -97.97880 38329 ft 505 kts 233°
2026-05-05 19:51 66.09631 -98.11683 38326 ft 505 kts 233°
2026-05-05 19:51 66.05347 -98.25422 38324 ft 505 kts 233°
2026-05-05 19:52 66.01075 -98.39038 38321 ft 504 kts 233°
2026-05-05 19:52 65.96765 -98.52692 38321 ft 504 kts 233°
2026-05-05 19:53 65.92480 -98.66182 38325 ft 504 kts 233°
2026-05-05 19:53 65.88154 -98.79717 38330 ft 504 kts 233°
2026-05-05 19:54 65.83817 -98.93204 38332 ft 505 kts 233°
2026-05-05 19:54 65.79462 -99.06667 38334 ft 505 kts 233°
2026-05-05 19:55 65.75098 -99.20072 38338 ft 505 kts 233°
2026-05-05 19:55 65.70716 -99.33456 38332 ft 505 kts 232°
2026-05-05 19:56 65.66350 -99.46704 38332 ft 505 kts 232°
2026-05-05 19:56 65.61946 -99.59991 38341 ft 505 kts 232°
2026-05-05 19:57 65.57548 -99.73180 38338 ft 505 kts 232°
2026-05-05 19:57 65.53105 -99.86426 38341 ft 506 kts 232°
2026-05-05 19:58 65.48687 -99.99517 38340 ft 506 kts 232°
2026-05-05 19:58 65.44229 -100.12648 38333 ft 506 kts 232°
2026-05-05 19:59 65.39767 -100.25715 38345 ft 506 kts 232°
2026-05-05 19:59 65.35286 -100.38760 38344 ft 506 kts 232°
2026-05-05 20:00 65.30791 -100.51766 38347 ft 506 kts 232°
2026-05-05 20:00 65.26311 -100.64656 38352 ft 506 kts 231°
2026-05-05 20:01 65.21793 -100.77575 38352 ft 507 kts 232°
2026-05-05 20:01 65.17260 -100.90462 38344 ft 507 kts 231°
2026-05-05 20:02 65.12721 -101.03296 38353 ft 507 kts 231°
2026-05-05 20:02 65.08202 -101.15995 38356 ft 507 kts 231°
2026-05-05 20:03 65.03644 -101.28733 38355 ft 506 kts 231°
2026-05-05 20:03 64.99077 -101.41417 38356 ft 506 kts 231°
2026-05-05 20:04 64.94496 -101.54070 38342 ft 506 kts 231°
2026-05-05 20:04 64.89901 -101.66689 38353 ft 506 kts 231°
2026-05-05 20:05 64.85303 -101.79245 38355 ft 506 kts 231°
2026-05-05 20:05 64.80716 -101.91696 38365 ft 507 kts 231°
2026-05-05 20:06 64.76081 -102.04209 38362 ft 507 kts 231°
2026-05-05 20:06 64.71434 -102.16685 38359 ft 508 kts 231°
2026-05-05 20:07 64.66770 -102.29130 38351 ft 508 kts 231°
2026-05-05 20:07 64.62127 -102.41453 38362 ft 509 kts 231°
2026-05-05 20:08 64.57436 -102.53834 38362 ft 509 kts 230°
2026-05-05 20:08 64.52726 -102.66192 38359 ft 510 kts 230°
2026-05-05 20:09 64.48037 -102.78430 38366 ft 510 kts 230°
2026-05-05 20:09 64.43303 -102.90712 38342 ft 510 kts 230°
2026-05-05 20:10 64.38598 -103.02854 38358 ft 510 kts 230°
2026-05-05 20:10 64.33835 -103.15076 38353 ft 510 kts 230°
2026-05-05 20:11 64.29102 -103.27152 38379 ft 510 kts 230°
2026-05-05 20:11 64.24326 -103.39275 38362 ft 510 kts 230°
2026-05-05 20:12 64.19542 -103.51348 38362 ft 511 kts 230°
2026-05-05 20:12 64.14771 -103.63322 38375 ft 510 kts 230°
2026-05-05 20:13 64.09976 -103.75294 38367 ft 510 kts 230°
2026-05-05 20:13 64.05162 -103.87249 38370 ft 511 kts 230°
2026-05-05 20:14 64.00335 -103.99173 38368 ft 511 kts 230°
2026-05-05 20:14 63.95471 -104.11013 38370 ft 511 kts 229°
2026-05-05 20:15 63.90619 -104.22665 38349 ft 511 kts 229°
2026-05-05 20:15 63.85724 -104.34368 38366 ft 510 kts 229°
2026-05-05 20:16 63.80818 -104.46057 38371 ft 510 kts 229°
2026-05-05 20:16 63.75946 -104.57609 38367 ft 511 kts 229°
2026-05-05 20:17 63.71027 -104.69214 38369 ft 511 kts 229°
2026-05-05 20:17 63.66924 -104.78844 38365 ft 511 kts 229°
2026-05-05 20:18 63.61984 -104.90379 38367 ft 511 kts 229°
2026-05-05 20:18 63.57027 -105.01895 38368 ft 511 kts 229°
2026-05-05 20:19 63.52101 -105.13278 38366 ft 512 kts 228°
2026-05-05 20:19 63.47124 -105.24715 38367 ft 512 kts 228°
2026-05-05 20:20 63.42140 -105.36111 38364 ft 512 kts 228°
2026-05-05 20:20 63.37147 -105.47464 38352 ft 512 kts 229°
2026-05-05 20:21 63.32180 -105.58700 38363 ft 512 kts 228°
2026-05-05 20:21 63.27168 -105.69978 38358 ft 512 kts 228°
2026-05-05 20:22 63.22140 -105.81235 38365 ft 512 kts 228°
2026-05-05 20:22 63.17111 -105.92432 38364 ft 512 kts 228°
2026-05-05 20:23 63.12112 -106.03508 38338 ft 512 kts 228°
2026-05-05 20:23 63.07067 -106.14626 38361 ft 512 kts 228°
2026-05-05 20:24 63.02002 -106.25730 38366 ft 512 kts 228°
2026-05-05 20:24 62.96951 -106.36749 38363 ft 513 kts 228°
2026-05-05 20:25 62.91867 -106.47779 38358 ft 513 kts 228°
2026-05-05 20:25 62.86803 -106.58711 38364 ft 513 kts 227°
2026-05-05 20:26 62.81708 -106.69654 38365 ft 513 kts 228°
2026-05-05 20:26 62.76595 -106.80581 38361 ft 513 kts 228°
2026-05-05 20:27 62.71469 -106.91477 38366 ft 514 kts 227°
2026-05-05 20:27 62.66369 -107.02263 38361 ft 514 kts 227°
2026-05-05 20:28 62.61226 -107.13086 38344 ft 514 kts 227°
2026-05-05 20:28 62.56077 -107.23866 38342 ft 514 kts 227°
2026-05-05 20:29 62.50917 -107.34613 38341 ft 514 kts 227°
2026-05-05 20:29 62.45750 -107.45324 38349 ft 514 kts 227°
2026-05-05 20:30 62.40573 -107.55999 38339 ft 515 kts 227°
2026-05-05 20:30 62.35373 -107.66669 38339 ft 515 kts 227°
2026-05-05 20:31 62.30198 -107.77231 38302 ft 515 kts 227°
2026-05-05 20:31 62.24988 -107.87815 38331 ft 515 kts 227°
2026-05-05 20:32 62.19763 -107.98377 38325 ft 516 kts 227°
2026-05-05 20:32 62.14551 -108.08858 38325 ft 516 kts 227°
2026-05-05 20:33 62.09306 -108.19355 38318 ft 517 kts 227°
2026-05-05 20:33 62.04046 -108.29828 38315 ft 517 kts 227°
2026-05-05 20:34 61.98804 -108.40214 38305 ft 517 kts 227°
2026-05-05 20:34 61.93538 -108.50596 38322 ft 517 kts 227°
2026-05-05 20:35 61.88248 -108.60976 38317 ft 517 kts 227°
2026-05-05 20:35 61.82948 -108.71324 38320 ft 518 kts 227°
2026-05-05 20:36 61.77670 -108.81578 38324 ft 518 kts 227°
2026-05-05 20:36 61.72357 -108.91847 38309 ft 517 kts 227°
2026-05-05 20:37 61.67039 -109.02078 38314 ft 518 kts 227°
2026-05-05 20:37 61.61710 -109.12281 38309 ft 518 kts 227°
2026-05-05 20:38 61.56365 -109.22464 38314 ft 518 kts 227°
2026-05-05 20:38 61.51008 -109.32620 38309 ft 519 kts 227°
2026-05-05 20:39 61.45647 -109.42734 38305 ft 518 kts 227°
2026-05-05 20:39 61.40314 -109.52747 38308 ft 518 kts 227°
2026-05-05 20:40 61.34937 -109.62797 38310 ft 519 kts 227°
2026-05-05 20:40 61.29547 -109.72820 38308 ft 519 kts 227°
2026-05-05 20:41 61.24146 -109.82818 38310 ft 519 kts 226°
2026-05-05 20:41 61.18746 -109.92763 38288 ft 518 kts 227°
2026-05-05 20:42 61.13375 -110.02608 38296 ft 518 kts 227°
2026-05-05 20:42 61.07964 -110.12482 38301 ft 518 kts 226°
2026-05-05 20:43 61.02536 -110.22339 38298 ft 519 kts 226°
2026-05-05 20:43 60.97102 -110.32159 38308 ft 519 kts 226°
2026-05-05 20:44 60.91684 -110.41906 38302 ft 520 kts 226°
2026-05-05 20:44 60.86220 -110.51690 38301 ft 520 kts 226°
2026-05-05 20:45 60.78047 -110.66235 38297 ft 520 kts 226°
2026-05-05 20:45 60.72568 -110.75930 38304 ft 520 kts 226°
2026-05-05 20:46 60.67074 -110.85605 38259 ft 520 kts 226°
2026-05-05 20:46 60.61617 -110.95172 38303 ft 520 kts 226°
2026-05-05 20:47 60.56123 -111.04758 38330 ft 520 kts 226°
2026-05-05 20:47 60.50620 -111.14318 38307 ft 521 kts 226°
2026-05-05 20:48 60.45097 -111.23866 38293 ft 521 kts 226°
2026-05-05 20:48 60.39600 -111.33326 38266 ft 522 kts 226°
2026-05-05 20:49 60.34060 -111.42813 38304 ft 521 kts 226°
2026-05-05 20:49 60.28519 -111.52264 38304 ft 521 kts 226°
2026-05-05 20:50 60.23909 -111.60091 38294 ft 521 kts 226°
2026-05-05 20:50 60.17454 -111.71002 38283 ft 521 kts 226°
2026-05-05 20:51 60.11896 -111.80351 38226 ft 521 kts 226°
2026-05-05 20:51 60.06324 -111.89684 38264 ft 520 kts 226°
2026-05-05 20:52 60.00761 -111.98960 38266 ft 520 kts 226°
2026-05-05 20:52 59.95234 -112.08160 38268 ft 520 kts 226°
2026-05-05 20:53 59.89670 -112.17400 38272 ft 520 kts 226°
2026-05-05 20:53 59.84100 -112.26611 38218 ft 520 kts 226°
2026-05-05 20:54 59.78525 -112.35786 38264 ft 519 kts 226°
2026-05-05 20:54 59.72950 -112.44919 38278 ft 519 kts 226°
2026-05-05 20:55 59.67410 -112.53956 38270 ft 519 kts 226°
2026-05-05 20:55 59.61812 -112.63046 38267 ft 519 kts 225°
2026-05-05 20:56 59.56213 -112.72096 38214 ft 519 kts 225°
2026-05-05 20:56 59.50660 -112.81033 38265 ft 519 kts 225°
2026-05-05 20:57 59.45053 -112.90018 38252 ft 519 kts 225°
2026-05-05 20:57 59.39434 -112.98984 38264 ft 520 kts 225°
2026-05-05 20:58 59.33800 -113.07933 38253 ft 521 kts 225°
2026-05-05 20:58 59.28190 -113.16801 38201 ft 521 kts 225°
2026-05-05 20:59 59.22541 -113.25694 38242 ft 521 kts 225°
2026-05-05 20:59 59.16870 -113.34587 38243 ft 523 kts 225°
2026-05-05 21:00 59.11176 -113.43474 38227 ft 524 kts 225°
2026-05-05 21:00 59.05475 -113.52331 38241 ft 525 kts 225°
2026-05-05 21:01 58.99796 -113.61114 38195 ft 525 kts 226°
2026-05-05 21:01 58.94078 -113.69921 38221 ft 525 kts 226°
2026-05-05 21:02 58.89308 -113.77241 38218 ft 525 kts 226°
2026-05-05 21:02 58.83570 -113.86008 38217 ft 525 kts 225°
2026-05-05 21:03 58.77824 -113.94751 38199 ft 526 kts 225°
2026-05-05 21:03 58.72103 -114.03416 38210 ft 525 kts 226°
2026-05-05 21:04 58.66342 -114.12104 38206 ft 525 kts 226°
2026-05-05 21:04 58.60571 -114.20772 38218 ft 525 kts 226°
2026-05-05 21:05 58.54808 -114.29390 38211 ft 525 kts 226°
2026-05-05 21:05 58.49073 -114.37929 38209 ft 525 kts 226°
2026-05-05 21:06 58.43316 -114.46460 38201 ft 522 kts 226°
2026-05-05 21:06 58.37613 -114.54879 38211 ft 520 kts 226°
2026-05-05 21:07 58.31892 -114.63293 38195 ft 520 kts 226°
2026-05-05 21:07 58.26160 -114.71689 38198 ft 520 kts 226°
2026-05-05 21:08 58.20402 -114.80087 38189 ft 522 kts 226°
2026-05-05 21:08 58.14629 -114.88469 38183 ft 523 kts 226°
2026-05-05 21:09 58.08865 -114.96802 38184 ft 524 kts 226°
2026-05-05 21:09 58.03054 -115.05167 38184 ft 524 kts 226°
2026-05-05 21:10 57.97242 -115.13498 38185 ft 525 kts 226°
2026-05-05 21:10 57.91450 -115.21766 38144 ft 525 kts 226°
2026-05-05 21:11 57.85624 -115.30047 38174 ft 523 kts 226°
2026-05-05 21:11 57.79809 -115.38279 38171 ft 523 kts 226°
2026-05-05 21:12 57.73995 -115.46476 38160 ft 521 kts 226°
2026-05-05 21:12 57.68242 -115.54556 38180 ft 520 kts 226°
2026-05-05 21:13 57.62438 -115.62675 38178 ft 519 kts 226°
2026-05-05 21:13 57.56658 -115.70725 38157 ft 517 kts 226°
2026-05-05 21:14 57.50917 -115.78687 38180 ft 516 kts 226°
2026-05-05 21:14 57.45139 -115.86673 38163 ft 517 kts 226°
2026-05-05 21:15 57.39381 -115.94603 38173 ft 518 kts 226°
2026-05-05 21:15 57.33577 -116.02555 38159 ft 517 kts 226°
2026-05-05 21:16 57.27815 -116.10420 38157 ft 517 kts 225°
2026-05-05 21:16 57.22022 -116.18294 38161 ft 516 kts 225°
2026-05-05 21:17 57.16229 -116.26139 38166 ft 515 kts 225°
2026-05-05 21:17 57.10444 -116.33943 38120 ft 515 kts 225°
2026-05-05 21:18 57.04705 -116.41651 38153 ft 513 kts 225°
2026-05-05 21:18 56.98924 -116.49390 38177 ft 513 kts 225°
2026-05-05 21:19 56.93155 -116.57084 38158 ft 513 kts 225°
2026-05-05 21:19 56.87376 -116.64759 38175 ft 513 kts 225°
2026-05-05 21:20 56.81609 -116.72386 38159 ft 512 kts 225°
2026-05-05 21:20 56.75824 -116.80006 38163 ft 512 kts 225°
2026-05-05 21:21 56.70043 -116.87594 38174 ft 511 kts 225°
2026-05-05 21:21 56.64301 -116.95103 38190 ft 511 kts 225°
2026-05-05 21:22 56.58513 -117.02645 38180 ft 512 kts 224°
2026-05-05 21:22 56.52705 -117.10181 38182 ft 512 kts 224°
2026-05-05 21:23 56.46931 -117.17641 38190 ft 512 kts 224°
2026-05-05 21:23 56.41128 -117.25113 38190 ft 512 kts 224°
2026-05-05 21:24 56.35319 -117.32564 38190 ft 512 kts 224°
2026-05-05 21:24 56.29495 -117.40009 38152 ft 512 kts 224°
2026-05-05 21:25 56.23690 -117.47401 38122 ft 510 kts 224°
2026-05-05 21:25 56.18085 -117.55007 38132 ft 503 kts 229°
2026-05-05 21:26 56.12755 -117.63151 38142 ft 503 kts 229°
2026-05-05 21:26 56.07419 -117.71296 38157 ft 504 kts 229°
2026-05-05 21:27 56.02058 -117.79393 38157 ft 503 kts 229°
2026-05-05 21:27 55.96720 -117.87399 38171 ft 504 kts 229°
2026-05-05 21:28 55.91337 -117.95438 38202 ft 503 kts 229°
2026-05-05 21:28 55.85949 -118.03463 38169 ft 504 kts 229°
2026-05-05 21:29 55.80563 -118.11454 38136 ft 504 kts 228°
2026-05-05 21:29 55.75212 -118.19360 38179 ft 503 kts 228°
2026-05-05 21:30 55.69817 -118.27303 38171 ft 503 kts 228°
2026-05-05 21:30 55.64415 -118.35230 38168 ft 504 kts 228°
2026-05-05 21:31 55.59039 -118.43088 38175 ft 504 kts 228°
2026-05-05 21:31 55.53619 -118.50980 38167 ft 505 kts 228°
2026-05-05 21:32 55.48195 -118.58851 38159 ft 505 kts 227°
2026-05-05 21:32 55.42760 -118.66708 38147 ft 505 kts 227°
2026-05-05 21:33 55.37347 -118.74504 38125 ft 505 kts 227°
2026-05-05 21:33 55.31895 -118.82329 38065 ft 505 kts 227°
2026-05-05 21:34 55.26450 -118.90114 38098 ft 504 kts 227°
2026-05-05 21:34 55.21009 -118.97872 38102 ft 504 kts 227°
2026-05-05 21:35 55.15437 -119.05267 38101 ft 511 kts 219°
2026-05-05 21:35 55.09323 -119.11707 38151 ft 513 kts 218°
2026-05-05 21:36 55.03178 -119.18056 38155 ft 512 kts 218°
2026-05-05 21:36 54.97063 -119.24418 38129 ft 511 kts 218°
2026-05-05 21:37 54.90963 -119.30796 38127 ft 510 kts 218°
2026-05-05 21:37 54.84909 -119.37118 38115 ft 511 kts 218°
2026-05-05 21:38 54.78793 -119.43478 38078 ft 511 kts 218°
2026-05-05 21:38 54.72689 -119.49798 38109 ft 511 kts 218°
2026-05-05 21:39 54.66616 -119.56064 38096 ft 511 kts 218°
2026-05-05 21:39 54.60498 -119.62352 38105 ft 511 kts 218°
2026-05-05 21:40 54.54382 -119.68617 38096 ft 511 kts 218°
2026-05-05 21:40 54.48278 -119.74847 38090 ft 509 kts 217°
2026-05-05 21:41 54.42178 -119.81051 38084 ft 509 kts 217°
2026-05-05 21:41 54.36065 -119.87251 38090 ft 510 kts 217°
2026-05-05 21:42 54.29972 -119.93406 38088 ft 510 kts 217°
2026-05-05 21:42 54.23838 -119.99577 38051 ft 510 kts 217°
2026-05-05 21:43 54.17713 -120.05723 38066 ft 509 kts 217°
2026-05-05 21:43 54.11647 -120.11788 38085 ft 508 kts 217°
2026-05-05 21:44 54.05544 -120.17866 38096 ft 508 kts 217°
2026-05-05 21:44 53.99428 -120.23941 38069 ft 509 kts 217°
2026-05-05 21:45 53.93304 -120.29999 38054 ft 508 kts 216°
2026-05-05 21:45 53.87229 -120.35983 38027 ft 507 kts 216°
2026-05-05 21:46 53.81165 -120.41942 38082 ft 505 kts 216°
2026-05-05 21:46 53.75055 -120.47939 38053 ft 508 kts 216°
2026-05-05 21:47 53.68970 -120.53873 37992 ft 509 kts 216°
2026-05-05 21:47 53.62827 -120.59848 38052 ft 510 kts 216°
2026-05-05 21:48 53.56655 -120.65834 38041 ft 511 kts 216°
2026-05-05 21:48 53.50485 -120.71792 38056 ft 512 kts 216°
2026-05-05 21:49 53.44344 -120.77702 38051 ft 511 kts 216°
2026-05-05 21:49 53.38171 -120.83628 38033 ft 509 kts 215°
2026-05-05 21:50 53.32030 -120.89498 38028 ft 508 kts 215°
2026-05-05 21:50 53.25940 -120.95302 38044 ft 506 kts 215°
2026-05-05 21:51 53.19801 -121.01137 38031 ft 508 kts 215°
2026-05-05 21:51 53.14686 -121.05988 37979 ft 510 kts 215°
2026-05-05 21:52 53.05457 -121.14693 38012 ft 508 kts 215°
2026-05-05 21:53 52.99313 -121.20463 38025 ft 507 kts 215°
2026-05-05 21:53 52.93163 -121.26223 38020 ft 507 kts 215°
2026-05-05 21:54 52.87029 -121.31948 38015 ft 506 kts 214°
2026-05-05 21:54 52.80924 -121.37629 38014 ft 507 kts 215°
2026-05-05 21:55 52.74749 -121.43358 38019 ft 509 kts 215°
2026-05-05 21:55 52.68601 -121.49037 38022 ft 509 kts 215°
2026-05-05 21:56 52.62409 -121.54749 38021 ft 511 kts 214°
2026-05-05 21:56 52.56200 -121.60451 38013 ft 511 kts 214°
2026-05-05 21:57 52.49976 -121.66145 38017 ft 511 kts 214°
2026-05-05 21:57 52.43762 -121.71812 38017 ft 511 kts 214°
2026-05-05 21:58 52.37535 -121.77475 38027 ft 511 kts 214°
2026-05-05 21:58 52.31348 -121.83084 38016 ft 511 kts 214°
2026-05-05 21:59 52.25126 -121.88704 38017 ft 510 kts 214°
2026-05-05 21:59 52.18948 -121.94267 38018 ft 509 kts 214°
2026-05-05 22:00 52.12745 -121.99836 38022 ft 509 kts 214°
2026-05-05 22:00 52.06533 -122.05395 38001 ft 508 kts 214°
2026-05-05 22:01 52.00336 -122.10922 38025 ft 508 kts 214°
2026-05-05 22:01 51.94130 -122.16441 38014 ft 508 kts 213°
2026-05-05 22:02 51.87958 -122.21911 38010 ft 508 kts 213°
2026-05-05 22:02 51.81742 -122.27404 38006 ft 508 kts 213°
2026-05-05 22:03 51.75522 -122.32882 37999 ft 507 kts 213°
2026-05-05 22:03 51.69358 -122.38293 38002 ft 507 kts 213°
2026-05-05 22:04 51.63142 -122.43732 37988 ft 507 kts 213°
2026-05-05 22:04 51.56923 -122.49159 37995 ft 508 kts 213°
2026-05-05 22:05 51.50743 -122.54534 37985 ft 507 kts 213°
2026-05-05 22:05 51.44521 -122.59928 37978 ft 506 kts 213°
2026-05-05 22:06 51.38325 -122.65282 37989 ft 505 kts 213°
2026-05-05 22:06 51.32163 -122.70590 37917 ft 497 kts 213°
2026-05-05 22:06 51.29104 -122.73220 37171 ft 499 kts 213°
2026-05-05 22:07 51.26103 -122.75795 36700 ft 492 kts 212°
2026-05-05 22:07 51.23097 -122.78369 36220 ft 486 kts 212°
2026-05-05 22:07 51.20139 -122.80899 35770 ft 480 kts 212°
2026-05-05 22:07 51.17207 -122.83404 35293 ft 475 kts 212°
2026-05-05 22:08 51.14304 -122.85883 34821 ft 471 kts 212°
2026-05-05 22:08 51.11424 -122.88339 34366 ft 467 kts 212°
2026-05-05 22:08 51.08563 -122.90776 33876 ft 463 kts 212°
2026-05-05 22:08 51.05730 -122.93183 33352 ft 460 kts 212°
2026-05-05 22:09 51.02951 -122.95544 32864 ft 456 kts 212°
2026-05-05 22:09 51.00163 -122.97907 32404 ft 451 kts 212°
2026-05-05 22:09 50.97405 -123.00243 31946 ft 447 kts 212°
2026-05-05 22:09 50.94668 -123.02556 31486 ft 443 kts 212°
2026-05-05 22:10 50.91957 -123.04844 31053 ft 439 kts 212°
2026-05-05 22:10 50.89233 -123.07036 30605 ft 438 kts 207°
2026-05-05 22:10 50.86415 -123.08869 30178 ft 435 kts 205°
2026-05-05 22:10 50.83601 -123.10611 29646 ft 432 kts 204°
2026-05-05 22:11 50.80804 -123.12325 29181 ft 429 kts 205°
2026-05-05 22:11 50.78061 -123.14009 28715 ft 425 kts 205°
2026-05-05 22:11 50.75316 -123.15703 28248 ft 421 kts 205°
2026-05-05 22:11 50.72595 -123.17388 27816 ft 417 kts 205°
2026-05-05 22:12 50.69905 -123.19057 27380 ft 414 kts 205°
2026-05-05 22:12 50.67227 -123.20722 26922 ft 411 kts 205°
2026-05-05 22:12 50.64574 -123.22370 26474 ft 408 kts 205°
2026-05-05 22:12 50.61948 -123.24003 26065 ft 405 kts 205°
2026-05-05 22:13 50.59321 -123.25633 25637 ft 404 kts 205°
2026-05-05 22:13 50.56706 -123.27254 25225 ft 402 kts 205°
2026-05-05 22:13 50.54136 -123.28844 24791 ft 401 kts 205°
2026-05-05 22:13 50.51547 -123.30446 24358 ft 400 kts 205°
2026-05-05 22:14 50.48959 -123.32044 23928 ft 399 kts 205°
2026-05-05 22:14 50.46386 -123.33632 23512 ft 397 kts 205°
2026-05-05 22:14 50.43808 -123.35218 23001 ft 395 kts 205°
2026-05-05 22:14 50.41253 -123.36790 22576 ft 392 kts 205°
2026-05-05 22:15 50.38720 -123.38346 22116 ft 390 kts 205°
2026-05-05 22:15 50.36197 -123.39894 21696 ft 387 kts 205°
2026-05-05 22:15 50.33697 -123.41427 21289 ft 385 kts 205°
2026-05-05 22:15 50.31203 -123.42953 20857 ft 383 kts 205°
2026-05-05 22:16 50.28755 -123.44451 20459 ft 381 kts 205°
2026-05-05 22:16 50.26294 -123.45953 20034 ft 378 kts 205°
2026-05-05 22:16 50.23843 -123.47449 19629 ft 376 kts 205°
2026-05-05 22:16 50.21406 -123.48936 19220 ft 375 kts 205°
2026-05-05 22:17 50.18977 -123.50417 18805 ft 374 kts 204°
2026-05-05 22:17 50.16550 -123.51895 18384 ft 374 kts 204°
2026-05-05 22:17 50.14149 -123.53354 17937 ft 374 kts 204°
2026-05-05 22:17 50.11720 -123.54826 17454 ft 374 kts 204°
2026-05-05 22:18 50.09291 -123.56299 16993 ft 374 kts 204°
2026-05-05 22:18 50.06863 -123.57775 16555 ft 373 kts 204°
2026-05-05 22:18 50.04440 -123.59241 16124 ft 372 kts 204°
2026-05-05 22:18 50.02031 -123.60694 15696 ft 371 kts 204°
2026-05-05 22:19 49.99633 -123.62147 15272 ft 370 kts 204°
2026-05-05 22:19 49.97270 -123.63601 14855 ft 369 kts 204°
2026-05-05 22:19 49.94883 -123.65077 14430 ft 369 kts 204°
2026-05-05 22:19 49.92498 -123.66551 13989 ft 369 kts 204°
2026-05-05 22:20 49.90115 -123.68008 13499 ft 365 kts 204°
2026-05-05 22:20 49.87761 -123.69459 13091 ft 362 kts 204°
2026-05-05 22:20 49.85430 -123.70891 12657 ft 358 kts 202°
2026-05-05 22:20 49.83042 -123.71665 12225 ft 347 kts 180°
2026-05-05 22:21 49.80756 -123.70960 12122 ft 327 kts 160°
2026-05-05 22:21 49.78767 -123.69368 12008 ft 319 kts 144°
2026-05-05 22:21 49.77091 -123.67179 11853 ft 311 kts 137°
2026-05-05 22:21 49.75516 -123.64957 11750 ft 303 kts 137°
2026-05-05 22:22 49.73964 -123.62775 11495 ft 302 kts 137°
2026-05-05 22:22 49.72434 -123.60654 11159 ft 291 kts 138°
2026-05-05 22:22 49.70929 -123.58583 10897 ft 291 kts 138°
2026-05-05 22:22 49.69393 -123.56474 10578 ft 298 kts 138°
2026-05-05 22:23 49.67842 -123.54351 10234 ft 293 kts 138°
2026-05-05 22:23 49.66353 -123.52316 9946 ft 288 kts 139°
2026-05-05 22:23 49.64837 -123.50249 9609 ft 289 kts 139°
2026-05-05 22:23 49.63359 -123.48238 9249 ft 277 kts 139°
2026-05-05 22:24 49.61887 -123.46425 8962 ft 265 kts 153°
2026-05-05 22:24 49.60111 -123.45679 8654 ft 268 kts 175°
2026-05-05 22:24 49.58248 -123.45367 8353 ft 270 kts 174°
2026-05-05 22:24 49.56397 -123.45021 8045 ft 274 kts 175°
2026-05-05 22:25 49.54494 -123.44660 7680 ft 276 kts 174°
2026-05-05 22:25 49.52631 -123.44315 7318 ft 261 kts 175°
2026-05-05 22:25 49.50825 -123.43982 7006 ft 262 kts 175°
2026-05-05 22:25 49.49003 -123.43646 6671 ft 264 kts 174°
2026-05-05 22:26 49.47167 -123.43304 6335 ft 267 kts 175°
2026-05-05 22:26 49.45313 -123.43001 5976 ft 265 kts 181°
2026-05-05 22:26 49.43514 -123.43279 5766 ft 257 kts 192°
2026-05-05 22:26 49.41796 -123.43780 5573 ft 251 kts 193°
2026-05-05 22:27 49.40091 -123.44266 5374 ft 248 kts 192°
2026-05-05 22:27 49.38391 -123.44721 5207 ft 246 kts 192°
2026-05-05 22:27 49.36718 -123.45155 5028 ft 242 kts 191°
2026-05-05 22:27 49.35099 -123.45666 4818 ft 231 kts 203°
2026-05-05 22:28 49.33868 -123.47096 4631 ft 220 kts 238°
2026-05-05 22:28 49.33286 -123.49245 4503 ft 220 kts 260°
2026-05-05 22:28 49.33260 -123.51570 4324 ft 220 kts 278°
2026-05-05 22:28 49.33503 -123.53905 4169 ft 224 kts 280°
2026-05-05 22:29 49.33759 -123.56224 4000 ft 219 kts 276°
2026-05-05 22:29 49.33483 -123.58410 3961 ft 210 kts 236°
2026-05-05 22:29 49.32379 -123.59858 3998 ft 213 kts 207°
2026-05-05 22:29 49.30962 -123.60463 3959 ft 212 kts 184°
2026-05-05 22:30 49.29546 -123.60049 3807 ft 205 kts 158°
2026-05-05 22:30 49.28417 -123.58810 3667 ft 200 kts 129°
2026-05-05 22:30 49.27633 -123.57070 3576 ft 200 kts 125°
2026-05-05 22:30 49.26835 -123.55313 3475 ft 201 kts 126°
2026-05-05 22:31 49.26033 -123.53552 3349 ft 202 kts 126°
2026-05-05 22:31 49.25231 -123.51791 3221 ft 201 kts 126°
2026-05-05 22:31 49.24446 -123.50072 3115 ft 197 kts 126°
2026-05-05 22:31 49.23805 -123.48252 3005 ft 195 kts 105°
2026-05-05 22:32 49.23518 -123.46220 3010 ft 196 kts 101°
2026-05-05 22:32 49.23262 -123.44191 3011 ft 189 kts 101°
2026-05-05 22:32 49.23035 -123.42248 2882 ft 184 kts 100°
2026-05-05 22:32 49.22820 -123.40359 2651 ft 176 kts 100°
2026-05-05 22:33 49.22615 -123.38546 2425 ft 169 kts 101°
2026-05-05 22:33 49.22418 -123.36809 2198 ft 164 kts 101°
2026-05-05 22:33 49.22225 -123.35111 2008 ft 163 kts 101°
2026-05-05 22:33 49.22037 -123.33455 1796 ft 153 kts 101°
2026-05-05 22:34 49.21861 -123.31905 1582 ft 142 kts 101°
2026-05-05 22:34 49.21694 -123.30435 1400 ft 144 kts 102°
2026-05-05 22:34 49.21523 -123.28929 1202 ft 142 kts 102°
2026-05-05 22:34 49.21356 -123.27461 1014 ft 138 kts 102°
2026-05-05 22:35 49.21190 -123.26011 826 ft 142 kts 102°
2026-05-05 22:35 49.21024 -123.24553 636 ft 137 kts 103°
2026-05-05 22:35 49.20851 -123.23110 474 ft 139 kts 103°
2026-05-05 22:35 49.20686 -123.21651 245 ft 137 kts 100°
2026-05-05 22:36 49.20540 -123.20249 99 ft 132 kts 102°
2026-05-05 22:36 49.20380 -123.18883 31 ft 122 kts 102°
2026-05-05 22:36 49.20257 -123.17825 30 ft 75 kts 101°
2026-05-05 22:36 49.20205 -123.17333 30 ft 31 kts 99°
2026-05-05 22:37 49.20172 -123.17085 30 ft 17 kts 107°
2026-05-05 22:37 49.20144 -123.16981 30 ft 1 kts 117°
2026-05-05 22:37 49.20104 -123.16885 29 ft 14 kts 125°
2026-05-05 22:37 49.20044 -123.16770 30 ft 14 kts 129°
2026-05-05 22:38 49.19984 -123.16664 30 ft 11 kts 134°
2026-05-05 22:38 49.19931 -123.16661 30 ft 7 kts 233°
2026-05-05 22:38 49.19923 -123.16737 30 ft 8 kts 267°
2026-05-05 22:38 49.19929 -123.16829 30 ft 9 kts 279°
2026-05-05 22:39 49.19940 -123.16932 30 ft 9 kts 281°
2026-05-05 22:39 49.19952 -123.17026 30 ft 10 kts 281°
2026-05-05 22:39 49.19965 -123.17132 30 ft 11 kts 280°
2026-05-05 22:39 49.19979 -123.17253 30 ft 12 kts 279°
2026-05-05 22:40 49.19988 -123.17341 30 ft 13 kts 279°
2026-05-05 22:40 49.20005 -123.17484 30 ft 14 kts 280°
2026-05-05 22:40 49.20023 -123.17638 30 ft 14 kts 280°
2026-05-05 22:40 49.20035 -123.17752 30 ft 9 kts 274°
2026-05-05 22:41 49.20033 -123.17793 30 ft 3 kts 258°
2026-05-05 22:41 49.20023 -123.17826 30 ft 4 kts 239°
2026-05-05 22:41 49.19999 -123.17858 30 ft 5 kts 213°
2026-05-05 22:41 49.19965 -123.17885 30 ft 6 kts 205°
2026-05-05 22:42 49.19941 -123.17901 30 ft 2 kts 204°
2026-05-05 22:42 49.19930 -123.17909 30 ft 2 kts 204°
2026-05-05 22:42 49.19919 -123.17917 30 ft 1 kts 205°
2026-05-05 22:42 49.19911 -123.17922 30 ft 1 kts 204°
2026-05-05 22:43 49.19904 -123.17926 30 ft 0 kts 204°